| time (UTC) | temp F | wind direction | speed knots | gust knots | rain 1hr in | rain 24hr in | rain mn in | humidity % | barometer mb |
| 20260906122429 | 75 | 282 | 0.0 | 0.0 | 0.00 | 0.00 | 0.00 | 99 | 997.4 |
| 20260906122329 | 75 | 283 | 0.0 | 0.0 | 0.00 | 0.00 | 0.00 | 99 | 997.1 |
| 20260906122229 | 75 | 283 | 0.0 | 0.0 | 0.00 | 0.00 | 0.00 | 99 | 997.1 |
| 20260906122128 | 75 | 283 | 0.0 | 0.0 | 0.00 | 0.00 | 0.00 | 99 | 997.2 |
| 20260906122028 | 75 | 283 | 0.9 | 1.7 | 0.00 | 0.00 | 0.00 | 99 | 997.2 |
| 20260906121859 | 75 | 282 | 0.9 | 1.7 | 0.00 | 0.00 | 0.00 | 99 | 997.2 |
| 20260906121729 | 74 | 281 | 0.0 | 0.9 | 0.00 | 0.00 | 0.00 | 99 | 997.2 |
| 20260906121628 | 74 | 281 | 0.0 | 0.9 | 0.00 | 0.00 | 0.00 | 99 | 997.1 |
| 20260906121528 | 74 | 281 | 0.0 | 0.0 | 0.00 | 0.00 | 0.00 | 99 | 997.1 |
| 20260906121428 | 74 | 281 | 0.0 | 0.0 | 0.00 | 0.00 | 0.00 | 99 | 997.1 |
| 20260906121259 | 74 | 281 | 0.0 | 0.9 | 0.00 | 0.00 | 0.00 | 99 | 997.2 |
| 20260906121158 | 74 | 281 | 0.9 | 1.7 | 0.00 | 0.00 | 0.00 | 99 | 997.3 |
| 20260906121058 | 74 | 281 | 1.7 | 1.7 | 0.00 | 0.00 | 0.00 | 99 | 997.2 |
| 20260906120958 | 74 | 281 | 0.9 | 0.9 | 0.00 | 0.00 | 0.00 | 99 | 997.2 |
| 20260906120829 | 74 | 281 | 0.0 | 0.0 | 0.00 | 0.00 | 0.00 | 99 | 997.3 |
| 20260906120728 | 74 | 281 | 0.9 | 1.7 | 0.00 | 0.00 | 0.00 | 99 | 997.0 |
| 20260906120628 | 74 | 281 | 0.9 | 0.9 | 0.00 | 0.00 | 0.00 | 99 | 997.1 |
| 20260906120528 | 74 | 281 | 0.9 | 1.7 | 0.00 | 0.00 | 0.00 | 99 | 996.9 |
| 20260906120428 | 74 | 278 | 0.0 | 0.9 | 0.00 | 0.00 | 0.00 | 99 | 997.0 |
| 20260906120328 | 74 | 277 | 0.9 | 1.7 | 0.00 | 0.00 | 0.00 | 99 | 997.1 |
| 20260906120228 | 74 | 276 | 0.0 | 0.0 | 0.00 | 0.00 | 0.00 | 99 | 996.9 |
| 20260906120128 | 74 | 276 | 0.0 | 0.9 | 0.00 | 0.00 | 0.00 | 99 | 997.0 |
| 20260906120028 | 74 | 276 | 0.0 | 0.0 | 0.00 | 0.00 | 0.00 | 99 | 997.0 |
| 20260906115859 | 74 | 276 | 0.0 | 0.0 | 0.00 | 0.00 | 0.00 | 99 | 997.0 |
| 20260906115758 | 74 | 276 | 0.0 | 0.0 | 0.00 | 0.00 | 0.00 | 99 | 997.1 |
| 20260906115658 | 74 | 276 | 0.0 | 0.0 | 0.00 | 0.00 | 0.00 | 99 | 996.7 |
| 20260906115529 | 74 | 276 | 0.0 | 0.0 | 0.00 | 0.00 | 0.00 | 99 | 996.8 |
| 20260906115428 | 74 | 276 | 0.0 | 0.0 | 0.00 | 0.00 | 0.00 | 99 | 996.9 |
| 20260906115328 | 74 | 276 | 0.0 | 0.0 | 0.00 | 0.00 | 0.00 | 99 | 996.7 |
| 20260906115159 | 74 | 276 | 0.0 | 0.0 | 0.00 | 0.00 | 0.00 | 99 | 996.8 |
| 20260906115059 | 74 | 276 | 0.0 | 0.0 | 0.00 | 0.00 | 0.00 | 99 | 996.8 |
| 20260906114928 | 74 | 276 | 0.0 | 0.0 | 0.00 | 0.00 | 0.00 | 99 | 996.5 |
| 20260906114759 | 74 | 276 | 0.0 | 0.0 | 0.00 | 0.00 | 0.00 | 99 | 996.6 |
| 20260906114629 | 74 | 276 | 0.0 | 0.0 | 0.00 | 0.00 | 0.00 | 99 | 996.8 |
| 20260906114528 | 74 | 276 | 0.0 | 0.0 | 0.00 | 0.00 | 0.00 | 99 | 996.4 |
| 20260906114428 | 74 | 276 | 0.0 | 0.0 | 0.00 | 0.00 | 0.00 | 99 | 996.8 |
| 20260906114328 | 74 | 276 | 0.0 | 0.0 | 0.00 | 0.00 | 0.00 | 99 | 996.5 |
| 20260906114159 | 74 | 276 | 0.0 | 0.0 | 0.00 | 0.00 | 0.00 | 99 | 996.5 |
| 20260906114058 | 74 | 276 | 0.0 | 0.0 | 0.00 | 0.00 | 0.00 | 99 | 996.6 |
| 20260906113958 | 74 | 276 | 0.0 | 0.0 | 0.00 | 0.00 | 0.00 | 99 | 996.4 |
| 20260906113829 | 74 | 276 | 0.0 | 0.0 | 0.00 | 0.00 | 0.00 | 99 | 996.8 |
| 20260906113659 | 74 | 276 | 0.0 | 0.0 | 0.00 | 0.00 | 0.00 | 99 | 996.5 |
| 20260906113529 | 74 | 276 | 0.0 | 0.0 | 0.00 | 0.00 | 0.00 | 99 | 996.4 |
| 20260906113428 | 74 | 276 | 0.0 | 0.0 | 0.00 | 0.00 | 0.00 | 99 | 996.5 |
| 20260906113259 | 74 | 276 | 0.0 | 0.0 | 0.00 | 0.00 | 0.00 | 99 | 996.5 |
| 20260906113158 | 74 | 276 | 0.0 | 0.0 | 0.00 | 0.00 | 0.00 | 99 | 996.5 |
| 20260906113058 | 74 | 276 | 0.0 | 0.0 | 0.00 | 0.00 | 0.00 | 99 | 996.6 |
| 20260906112958 | 74 | 276 | 0.0 | 0.0 | 0.00 | 0.00 | 0.00 | 99 | 996.4 |
| 20260906112858 | 74 | 276 | 0.0 | 0.0 | 0.00 | 0.00 | 0.00 | 99 | 996.3 |
| 20260906112758 | 74 | 276 | 0.0 | 0.0 | 0.00 | 0.00 | 0.00 | 99 | 996.6 |
| 20260906112629 | 74 | 276 | 0.0 | 0.0 | 0.00 | 0.00 | 0.00 | 99 | 996.3 |
| 20260906112528 | 74 | 276 | 0.0 | 0.0 | 0.00 | 0.00 | 0.00 | 99 | 996.5 |
| 20260906112428 | 74 | 276 | 0.0 | 0.0 | 0.00 | 0.00 | 0.00 | 99 | 996.5 |
| 20260906112328 | 74 | 276 | 0.0 | 0.0 | 0.00 | 0.00 | 0.00 | 99 | 996.5 |
| 20260906112228 | 74 | 276 | 0.0 | 0.0 | 0.00 | 0.00 | 0.00 | 99 | 996.4 |
| 20260906112058 | 74 | 276 | 0.0 | 0.0 | 0.00 | 0.00 | 0.00 | 99 | 996.6 |
| 20260906111929 | 74 | 276 | 0.0 | 0.0 | 0.00 | 0.00 | 0.00 | 99 | 996.3 |
| 20260906111828 | 74 | 275 | 0.0 | 0.0 | 0.00 | 0.00 | 0.00 | 99 | 996.4 |
| 20260906111728 | 74 | 275 | 0.0 | 0.0 | 0.00 | 0.00 | 0.00 | 99 | 996.5 |
| 20260906111600 | 74 | 275 | 0.0 | 0.0 | 0.00 | 0.00 | 0.00 | 99 | 996.5 |
| 20260906111429 | 74 | 275 | 0.0 | 0.0 | 0.00 | 0.00 | 0.00 | 99 | 996.4 |
| 20260906111328 | 74 | 275 | 0.0 | 0.0 | 0.00 | 0.00 | 0.00 | 99 | 996.5 |
| 20260906111158 | 74 | 275 | 0.0 | 0.0 | 0.00 | 0.00 | 0.00 | 99 | 996.4 |
| 20260906111029 | 74 | 275 | 0.0 | 0.0 | 0.00 | 0.00 | 0.00 | 99 | 996.6 |
| 20260906110928 | 74 | 276 | 0.0 | 0.0 | 0.00 | 0.00 | 0.00 | 99 | 996.3 |
| 20260906110828 | 74 | 276 | 0.0 | 0.0 | 0.00 | 0.00 | 0.00 | 99 | 996.2 |
| 20260906110728 | 74 | 276 | 0.0 | 0.0 | 0.00 | 0.00 | 0.00 | 99 | 996.5 |
| 20260906110628 | 74 | 276 | 0.0 | 0.0 | 0.00 | 0.00 | 0.00 | 99 | 996.4 |
| 20260906110528 | 74 | 276 | 0.0 | 0.0 | 0.00 | 0.00 | 0.00 | 99 | 996.4 |
| 20260906110358 | 74 | 276 | 0.0 | 0.0 | 0.00 | 0.00 | 0.00 | 99 | 996.3 |
| 20260906110258 | 74 | 276 | 0.0 | 0.0 | 0.00 | 0.00 | 0.00 | 99 | 996.3 |
| 20260906110129 | 74 | 276 | 0.0 | 0.0 | 0.00 | 0.00 | 0.00 | 99 | 996.4 |
| 20260906110028 | 74 | 275 | 0.0 | 0.0 | 0.00 | 0.00 | 0.00 | 99 | 996.3 |
| 20260906105928 | 74 | 275 | 0.0 | 0.0 | 0.00 | 0.00 | 0.00 | 99 | 996.2 |
| 20260906105828 | 74 | 275 | 0.0 | 0.0 | 0.00 | 0.00 | 0.00 | 99 | 996.2 |
| 20260906105659 | 74 | 275 | 0.0 | 0.0 | 0.00 | 0.00 | 0.00 | 99 | 996.1 |
| 20260906105558 | 74 | 276 | 0.0 | 0.0 | 0.00 | 0.00 | 0.00 | 99 | 996.3 |
| 20260906105459 | 74 | 275 | 0.0 | 0.0 | 0.00 | 0.00 | 0.00 | 99 | 996.2 |
| 20260906105358 | 74 | 276 | 0.0 | 0.0 | 0.00 | 0.00 | 0.00 | 99 | 996.2 |
| 20260906105229 | 74 | 276 | 0.0 | 0.0 | 0.00 | 0.00 | 0.00 | 99 | 996.3 |
| 20260906105128 | 74 | 276 | 0.0 | 0.0 | 0.00 | 0.00 | 0.00 | 99 | 996.1 |
| 20260906105028 | 74 | 276 | 0.0 | 0.0 | 0.00 | 0.00 | 0.00 | 99 | 996.3 |
| 20260906104928 | 74 | 276 | 0.0 | 0.0 | 0.00 | 0.00 | 0.00 | 99 | 996.3 |
| 20260906104759 | 74 | 276 | 0.0 | 0.0 | 0.00 | 0.00 | 0.00 | 99 | 996.1 |
| 20260906104658 | 74 | 275 | 0.0 | 0.0 | 0.00 | 0.00 | 0.00 | 99 | 996.3 |
| 20260906104558 | 74 | 276 | 0.0 | 0.0 | 0.00 | 0.00 | 0.00 | 99 | 996.2 |
| 20260906104458 | 74 | 276 | 0.0 | 0.0 | 0.00 | 0.00 | 0.00 | 99 | 995.9 |
| 20260906104329 | 74 | 276 | 0.0 | 0.0 | 0.00 | 0.00 | 0.00 | 99 | 996.2 |
| 20260906104228 | 74 | 276 | 0.0 | 0.0 | 0.00 | 0.00 | 0.00 | 99 | 996.2 |
| 20260906104128 | 74 | 276 | 0.0 | 0.0 | 0.00 | 0.00 | 0.00 | 99 | 996.3 |
| 20260906104028 | 74 | 276 | 0.0 | 0.0 | 0.00 | 0.00 | 0.00 | 99 | 996.1 |
| 20260906103928 | 75 | 276 | 0.0 | 0.0 | 0.00 | 0.00 | 0.00 | 99 | 996.0 |
| 20260906103828 | 75 | 276 | 0.0 | 0.0 | 0.00 | 0.00 | 0.00 | 99 | 996.0 |
| 20260906103728 | 75 | 276 | 0.0 | 0.0 | 0.00 | 0.00 | 0.00 | 99 | 996.0 |
| 20260906103629 | 75 | 276 | 0.0 | 0.0 | 0.00 | 0.00 | 0.00 | 99 | 996.1 |
| 20260906103528 | 75 | 276 | 0.0 | 0.0 | 0.00 | 0.00 | 0.00 | 99 | 996.1 |
| 20260906103359 | 74 | 276 | 0.0 | 0.0 | 0.00 | 0.00 | 0.00 | 99 | 995.9 |
| 20260906103229 | 74 | 276 | 0.0 | 0.0 | 0.00 | 0.00 | 0.00 | 99 | 995.9 |
| 20260906103128 | 74 | 276 | 0.0 | 0.0 | 0.00 | 0.00 | 0.00 | 99 | 996.0 |
| 20260906103028 | 74 | 276 | 0.0 | 0.0 | 0.00 | 0.00 | 0.00 | 99 | 995.8 |
| 20260906102859 | 74 | 276 | 0.0 | 0.0 | 0.00 | 0.00 | 0.00 | 99 | 996.0 |
| 20260906102758 | 74 | 276 | 0.0 | 0.0 | 0.00 | 0.00 | 0.00 | 99 | 995.9 |
| 20260906102658 | 74 | 276 | 0.0 | 0.0 | 0.00 | 0.00 | 0.00 | 99 | 995.8 |
| 20260906102558 | 74 | 276 | 0.0 | 0.0 | 0.00 | 0.00 | 0.00 | 99 | 995.8 |
| 20260906102458 | 74 | 276 | 0.0 | 0.0 | 0.00 | 0.00 | 0.00 | 99 | 995.9 |
| 20260906102329 | 74 | 276 | 0.0 | 0.0 | 0.00 | 0.00 | 0.00 | 99 | 995.9 |
| 20260906102228 | 74 | 276 | 0.0 | 0.0 | 0.00 | 0.00 | 0.00 | 99 | 995.8 |
| 20260906102059 | 74 | 276 | 0.0 | 0.0 | 0.00 | 0.00 | 0.00 | 99 | 995.8 |
| 20260906101958 | 74 | 276 | 0.0 | 0.0 | 0.00 | 0.00 | 0.00 | 99 | 995.8 |
| 20260906101858 | 74 | 276 | 0.0 | 0.0 | 0.00 | 0.00 | 0.00 | 99 | 995.9 |
| 20260906101759 | 74 | 276 | 0.0 | 0.0 | 0.00 | 0.00 | 0.00 | 99 | 995.7 |
| 20260906101629 | 74 | 276 | 0.0 | 0.0 | 0.00 | 0.00 | 0.00 | 99 | 995.7 |
| 20260906101459 | 74 | 276 | 0.0 | 0.0 | 0.00 | 0.00 | 0.00 | 99 | 995.7 |
| 20260906101328 | 75 | 276 | 0.0 | 0.0 | 0.00 | 0.00 | 0.00 | 99 | 995.9 |
| 20260906101159 | 75 | 276 | 0.0 | 0.0 | 0.00 | 0.00 | 0.00 | 99 | 995.8 |
| 20260906101058 | 74 | 276 | 0.0 | 0.0 | 0.00 | 0.00 | 0.00 | 99 | 995.8 |
| 20260906100958 | 74 | 276 | 0.0 | 0.0 | 0.00 | 0.00 | 0.00 | 99 | 995.4 |
| 20260906100858 | 74 | 276 | 0.0 | 0.0 | 0.00 | 0.00 | 0.00 | 99 | 995.6 |
| 20260906100729 | 74 | 276 | 0.0 | 0.0 | 0.00 | 0.00 | 0.00 | 99 | 995.6 |
| 20260906100628 | 75 | 276 | 0.0 | 0.0 | 0.00 | 0.00 | 0.00 | 99 | 995.6 |
| 20260906100528 | 75 | 276 | 0.0 | 0.0 | 0.00 | 0.00 | 0.00 | 99 | 995.6 |
| 20260906100428 | 75 | 276 | 0.0 | 0.0 | 0.00 | 0.00 | 0.00 | 99 | 995.4 |
| 20260906100259 | 75 | 276 | 0.0 | 0.0 | 0.00 | 0.00 | 0.00 | 99 | 995.3 |
| 20260906100158 | 75 | 276 | 0.0 | 0.0 | 0.00 | 0.00 | 0.00 | 99 | 995.5 |
| 20260906100028 | 75 | 276 | 0.0 | 0.0 | 0.00 | 0.00 | 0.00 | 99 | 995.6 |
| 20260906095859 | 75 | 276 | 0.0 | 0.0 | 0.00 | 0.00 | 0.00 | 99 | 995.6 |
| 20260906095729 | 75 | 276 | 0.0 | 0.0 | 0.00 | 0.00 | 0.00 | 99 | 995.6 |
| 20260906095629 | 75 | 276 | 0.0 | 0.0 | 0.00 | 0.00 | 0.00 | 99 | 995.5 |
| 20260906095528 | 75 | 276 | 0.0 | 0.0 | 0.00 | 0.00 | 0.00 | 99 | 995.6 |
| 20260906095359 | 76 | 276 | 0.0 | 0.0 | 0.00 | 0.00 | 0.00 | 99 | 995.4 |
| 20260906095258 | 76 | 276 | 0.0 | 0.0 | 0.00 | 0.00 | 0.00 | 99 | 995.4 |
| 20260906095158 | 76 | 276 | 0.0 | 0.0 | 0.00 | 0.00 | 0.00 | 99 | 995.5 |
| 20260906095058 | 76 | 276 | 0.0 | 0.0 | 0.00 | 0.00 | 0.00 | 99 | 995.4 |
| 20260906094930 | 76 | 276 | 0.0 | 0.0 | 0.00 | 0.00 | 0.00 | 99 | 995.4 |
| 20260906094828 | 76 | 276 | 0.0 | 0.0 | 0.00 | 0.00 | 0.00 | 99 | 995.6 |
| 20260906094728 | 76 | 276 | 0.0 | 0.0 | 0.00 | 0.00 | 0.00 | 99 | 995.6 |
| 20260906094628 | 76 | 276 | 0.0 | 0.0 | 0.00 | 0.00 | 0.00 | 99 | 995.5 |
| 20260906094528 | 76 | 276 | 0.0 | 0.0 | 0.00 | 0.00 | 0.00 | 99 | 995.6 |
| 20260906094428 | 76 | 276 | 0.0 | 0.0 | 0.00 | 0.00 | 0.00 | 99 | 995.2 |
| 20260906094328 | 76 | 276 | 0.0 | 0.0 | 0.00 | 0.00 | 0.00 | 99 | 995.5 |
| 20260906094228 | 76 | 276 | 0.0 | 0.0 | 0.00 | 0.00 | 0.00 | 99 | 995.4 |
| 20260906094128 | 76 | 276 | 0.0 | 0.0 | 0.00 | 0.00 | 0.00 | 99 | 995.4 |
| 20260906093959 | 76 | 276 | 0.0 | 0.0 | 0.00 | 0.00 | 0.00 | 99 | 995.5 |
| 20260906093858 | 75 | 276 | 0.0 | 0.0 | 0.00 | 0.00 | 0.00 | 99 | 995.4 |
| 20260906093758 | 75 | 276 | 0.0 | 0.0 | 0.00 | 0.00 | 0.00 | 98 | 995.5 |
| 20260906093658 | 75 | 276 | 0.0 | 0.0 | 0.00 | 0.00 | 0.00 | 98 | 995.5 |
| 20260906093558 | 75 | 276 | 0.0 | 0.0 | 0.00 | 0.00 | 0.00 | 98 | 995.4 |
| 20260906093429 | 75 | 276 | 0.0 | 0.0 | 0.00 | 0.00 | 0.00 | 98 | 995.4 |
| 20260906093328 | 75 | 276 | 0.0 | 0.0 | 0.00 | 0.00 | 0.00 | 98 | 995.5 |
| 20260906093228 | 75 | 276 | 0.0 | 0.0 | 0.00 | 0.00 | 0.00 | 99 | 995.5 |
| 20260906093128 | 75 | 276 | 0.0 | 0.0 | 0.00 | 0.00 | 0.00 | 99 | 995.5 |
| 20260906093028 | 75 | 276 | 0.0 | 0.0 | 0.00 | 0.00 | 0.00 | 99 | 995.5 |
| 20260906092859 | 75 | 276 | 0.0 | 0.0 | 0.00 | 0.00 | 0.00 | 99 | 995.5 |
| 20260906092729 | 75 | 276 | 0.0 | 0.0 | 0.00 | 0.00 | 0.00 | 99 | 995.4 |
| 20260906092628 | 75 | 276 | 0.0 | 0.0 | 0.00 | 0.00 | 0.00 | 99 | 995.5 |
| 20260906092528 | 75 | 276 | 0.0 | 0.0 | 0.00 | 0.00 | 0.00 | 99 | 995.5 |
| 20260906092428 | 75 | 276 | 0.0 | 0.0 | 0.00 | 0.00 | 0.00 | 99 | 995.4 |
| 20260906092259 | 75 | 276 | 0.0 | 0.0 | 0.00 | 0.00 | 0.00 | 99 | 995.6 |
| 20260906092158 | 75 | 276 | 0.0 | 0.0 | 0.00 | 0.00 | 0.00 | 99 | 995.4 |
| 20260906092058 | 75 | 276 | 0.0 | 0.0 | 0.00 | 0.00 | 0.00 | 99 | 995.5 |
| 20260906091958 | 75 | 276 | 0.0 | 0.0 | 0.00 | 0.00 | 0.00 | 99 | 995.4 |
| 20260906091830 | 75 | 276 | 0.0 | 0.0 | 0.00 | 0.00 | 0.00 | 99 | 995.5 |
| 20260906091728 | 75 | 276 | 0.0 | 0.0 | 0.00 | 0.00 | 0.00 | 99 | 995.4 |
| 20260906091628 | 75 | 276 | 0.0 | 0.0 | 0.00 | 0.00 | 0.00 | 99 | 995.4 |
| 20260906091528 | 75 | 276 | 0.0 | 0.0 | 0.00 | 0.00 | 0.00 | 99 | 995.7 |
| 20260906091428 | 75 | 276 | 0.0 | 0.0 | 0.00 | 0.00 | 0.00 | 99 | 995.5 |
| 20260906091259 | 75 | 276 | 0.0 | 0.0 | 0.00 | 0.00 | 0.00 | 98 | 995.7 |
| 20260906091158 | 75 | 276 | 0.0 | 0.0 | 0.00 | 0.00 | 0.00 | 99 | 995.5 |
| 20260906091058 | 75 | 276 | 1.7 | 1.7 | 0.00 | 0.00 | 0.00 | 99 | 995.5 |
| 20260906090958 | 75 | 276 | 0.0 | 0.0 | 0.00 | 0.00 | 0.00 | 99 | 995.6 |
| 20260906090829 | 76 | 276 | 0.0 | 0.0 | 0.00 | 0.00 | 0.00 | 99 | 995.7 |
| 20260906090728 | 76 | 276 | 0.0 | 0.0 | 0.00 | 0.00 | 0.00 | 99 | 995.6 |
| 20260906090628 | 76 | 276 | 0.0 | 0.0 | 0.00 | 0.00 | 0.00 | 99 | 995.6 |
| 20260906090528 | 76 | 276 | 0.0 | 0.0 | 0.00 | 0.00 | 0.00 | 99 | 995.6 |
| 20260906090428 | 76 | 276 | 0.0 | 0.0 | 0.00 | 0.00 | 0.00 | 99 | 995.5 |
| 20260906090259 | 76 | 276 | 0.0 | 0.0 | 0.00 | 0.00 | 0.00 | 98 | 995.7 |
| 20260906090158 | 76 | 276 | 0.0 | 0.0 | 0.00 | 0.00 | 0.00 | 98 | 995.5 |
| 20260906090058 | 76 | 276 | 0.0 | 0.0 | 0.00 | 0.00 | 0.00 | 98 | 995.8 |
| 20260906085958 | 76 | 276 | 0.0 | 0.0 | 0.00 | 0.00 | 0.00 | 98 | 995.5 |
| 20260906085858 | 76 | 276 | 0.0 | 0.0 | 0.00 | 0.00 | 0.00 | 98 | 995.6 |
| 20260906085729 | 76 | 276 | 0.0 | 0.0 | 0.00 | 0.00 | 0.00 | 98 | 995.6 |
| 20260906085628 | 76 | 276 | 0.0 | 0.0 | 0.00 | 0.00 | 0.00 | 98 | 995.6 |
| 20260906085528 | 76 | 276 | 0.0 | 0.0 | 0.00 | 0.00 | 0.00 | 98 | 995.8 |
| 20260906085428 | 76 | 276 | 0.0 | 0.0 | 0.00 | 0.00 | 0.00 | 98 | 995.6 |
| 20260906085328 | 76 | 276 | 0.0 | 0.0 | 0.00 | 0.00 | 0.00 | 98 | 995.5 |
| 20260906085159 | 76 | 276 | 0.0 | 0.0 | 0.00 | 0.00 | 0.00 | 98 | 995.5 |
| 20260906085058 | 76 | 276 | 0.0 | 0.9 | 0.00 | 0.00 | 0.00 | 98 | 995.4 |
| 20260906084958 | 76 | 276 | 0.0 | 0.0 | 0.00 | 0.00 | 0.00 | 99 | 995.7 |
| 20260906084829 | 76 | 276 | 0.0 | 0.0 | 0.00 | 0.00 | 0.00 | 99 | 995.7 |
| 20260906084659 | 76 | 276 | 0.0 | 0.0 | 0.00 | 0.00 | 0.00 | 99 | 995.4 |
| 20260906084558 | 76 | 276 | 0.0 | 0.0 | 0.00 | 0.00 | 0.00 | 99 | 995.5 |
| 20260906084458 | 76 | 276 | 0.0 | 0.0 | 0.00 | 0.00 | 0.00 | 99 | 995.7 |
| 20260906084358 | 76 | 276 | 0.0 | 0.0 | 0.00 | 0.00 | 0.00 | 99 | 995.7 |
| 20260906084229 | 76 | 276 | 0.0 | 0.0 | 0.00 | 0.00 | 0.00 | 99 | 995.4 |
| 20260906084128 | 76 | 276 | 0.0 | 0.0 | 0.00 | 0.00 | 0.00 | 99 | 995.6 |
| 20260906084028 | 76 | 276 | 0.0 | 0.0 | 0.00 | 0.00 | 0.00 | 99 | 995.6 |
| 20260906083928 | 76 | 276 | 0.0 | 0.0 | 0.00 | 0.00 | 0.00 | 99 | 995.5 |
| 20260906083828 | 76 | 276 | 0.0 | 0.0 | 0.00 | 0.00 | 0.00 | 99 | 995.5 |
| 20260906083658 | 76 | 276 | 0.0 | 0.0 | 0.00 | 0.00 | 0.00 | 99 | 995.3 |
| 20260906083558 | 76 | 276 | 0.0 | 0.0 | 0.00 | 0.00 | 0.00 | 99 | 995.3 |
| 20260906083458 | 77 | 276 | 0.0 | 0.0 | 0.00 | 0.00 | 0.00 | 99 | 995.4 |
| 20260906083358 | 76 | 276 | 0.0 | 0.0 | 0.00 | 0.00 | 0.00 | 99 | 995.4 |
| 20260906083258 | 76 | 276 | 0.0 | 0.0 | 0.00 | 0.00 | 0.00 | 99 | 995.4 |
| 20260906083158 | 76 | 276 | 0.0 | 0.0 | 0.00 | 0.00 | 0.00 | 99 | 995.5 |
| 20260906082900 | 77 | 276 | 0.0 | 0.0 | 0.00 | 0.00 | 0.00 | 99 | 995.5 |
| 20260906082759 | 77 | 276 | 0.0 | 0.0 | 0.00 | 0.00 | 0.00 | 99 | 995.5 |
| 20260906082659 | 77 | 276 | 0.0 | 0.0 | 0.00 | 0.00 | 0.00 | 99 | 995.7 |
| 20260906082559 | 77 | 276 | 0.0 | 0.0 | 0.00 | 0.00 | 0.00 | 99 | 995.5 |
| 20260906082459 | 77 | 276 | 0.0 | 0.0 | 0.00 | 0.00 | 0.00 | 99 | 995.5 |
| 20260906082359 | 77 | 276 | 0.0 | 0.0 | 0.00 | 0.00 | 0.00 | 98 | 995.7 |
| 20260906082259 | 77 | 276 | 0.0 | 0.0 | 0.00 | 0.00 | 0.00 | 98 | 995.6 |
| 20260906082159 | 77 | 276 | 0.0 | 0.0 | 0.00 | 0.00 | 0.00 | 98 | 995.6 |
| 20260906082029 | 77 | 276 | 0.0 | 0.0 | 0.00 | 0.00 | 0.00 | 98 | 995.7 |
| 20260906081928 | 77 | 276 | 0.0 | 0.0 | 0.00 | 0.00 | 0.00 | 98 | 995.7 |
| 20260906081828 | 77 | 276 | 0.0 | 0.0 | 0.00 | 0.00 | 0.00 | 98 | 995.8 |
| 20260906081728 | 77 | 276 | 0.0 | 0.0 | 0.00 | 0.00 | 0.00 | 98 | 995.4 |
| 20260906081628 | 77 | 276 | 0.0 | 0.0 | 0.00 | 0.00 | 0.00 | 98 | 995.5 |
| 20260906081358 | 77 | 276 | 0.0 | 0.0 | 0.00 | 0.00 | 0.00 | 98 | 995.6 |
| 20260906081258 | 77 | 276 | 0.0 | 0.0 | 0.00 | 0.00 | 0.00 | 98 | 995.6 |
| 20260906081158 | 77 | 276 | 0.0 | 0.0 | 0.00 | 0.00 | 0.00 | 98 | 995.7 |
| 20260906081058 | 77 | 276 | 0.0 | 0.0 | 0.00 | 0.00 | 0.00 | 98 | 995.4 |
| 20260906080828 | 77 | 276 | 0.0 | 0.0 | 0.00 | 0.00 | 0.00 | 98 | 995.6 |
| 20260906080700 | 77 | 276 | 0.0 | 0.0 | 0.00 | 0.00 | 0.00 | 98 | 995.5 |
| 20260906080558 | 77 | 276 | 0.0 | 0.0 | 0.00 | 0.00 | 0.00 | 98 | 995.4 |
| 20260906080458 | 77 | 276 | 0.0 | 0.0 | 0.00 | 0.00 | 0.00 | 98 | 995.5 |
| 20260906080358 | 77 | 276 | 0.0 | 0.0 | 0.00 | 0.00 | 0.00 | 98 | 995.4 |
| 20260906080258 | 77 | 276 | 0.0 | 0.0 | 0.00 | 0.00 | 0.00 | 98 | 995.5 |
| 20260906080132 | 77 | 276 | 0.0 | 0.0 | 0.00 | 0.00 | 0.00 | 97 | 995.4 |
| 20260906080028 | 77 | 276 | 0.0 | 0.0 | 0.00 | 0.00 | 0.00 | 97 | 995.4 |
| 20260906075928 | 77 | 276 | 0.0 | 0.0 | 0.00 | 0.00 | 0.00 | 98 | 995.5 |
| 20260906075759 | 77 | 276 | 0.0 | 0.0 | 0.00 | 0.00 | 0.00 | 98 | 995.3 |
| 20260906075629 | 77 | 276 | 0.0 | 0.0 | 0.00 | 0.00 | 0.00 | 98 | 995.4 |
| 20260906075459 | 77 | 276 | 0.0 | 0.0 | 0.00 | 0.00 | 0.00 | 97 | 995.6 |
| 20260906075329 | 77 | 276 | 0.0 | 0.0 | 0.00 | 0.00 | 0.00 | 97 | 995.3 |
| 20260906075229 | 78 | 276 | 0.0 | 0.0 | 0.00 | 0.00 | 0.00 | 97 | 995.7 |
| 20260906075058 | 78 | 276 | 0.0 | 0.0 | 0.00 | 0.00 | 0.00 | 97 | 995.5 |
| 20260906074929 | 78 | 276 | 0.0 | 0.0 | 0.00 | 0.00 | 0.00 | 97 | 995.3 |
| 20260906074829 | 78 | 276 | 0.0 | 0.0 | 0.00 | 0.00 | 0.00 | 96 | 995.2 |
| 20260906074728 | 78 | 276 | 0.0 | 0.0 | 0.00 | 0.00 | 0.00 | 96 | 995.2 |
| 20260906074600 | 77 | 276 | 0.0 | 0.0 | 0.00 | 0.00 | 0.00 | 95 | 995.4 |
| 20260906074431 | 77 | 276 | 0.0 | 0.0 | 0.00 | 0.00 | 0.00 | 95 | 995.5 |
| 20260906073658 | 77 | 276 | 0.0 | 0.0 | 0.00 | 0.00 | 0.00 | 95 | 995.4 |
| 20260906073529 | 77 | 276 | 0.0 | 0.0 | 0.00 | 0.00 | 0.00 | 95 | 995.3 |
| 20260906073429 | 77 | 276 | 0.0 | 0.0 | 0.00 | 0.00 | 0.00 | 95 | 995.3 |
| 20260906073301 | 77 | 276 | 0.0 | 0.0 | 0.00 | 0.00 | 0.00 | 95 | 995.4 |
| 20260906073128 | 77 | 276 | 0.0 | 0.0 | 0.00 | 0.00 | 0.00 | 96 | 995.4 |
| 20260906072959 | 77 | 276 | 0.0 | 0.0 | 0.00 | 0.00 | 0.00 | 96 | 995.2 |
| 20260906072830 | 77 | 276 | 0.0 | 0.0 | 0.00 | 0.00 | 0.00 | 96 | 995.4 |
| 20260906072658 | 77 | 276 | 0.0 | 0.0 | 0.00 | 0.00 | 0.00 | 96 | 995.3 |
| 20260906072528 | 77 | 276 | 0.0 | 0.0 | 0.00 | 0.00 | 0.00 | 96 | 995.5 |
| 20260906072359 | 77 | 276 | 0.0 | 0.0 | 0.00 | 0.00 | 0.00 | 97 | 995.5 |
| 20260906072229 | 77 | 276 | 0.0 | 0.0 | 0.00 | 0.00 | 0.00 | 97 | 995.4 |
| 20260906072058 | 77 | 276 | 0.0 | 0.0 | 0.00 | 0.00 | 0.00 | 98 | 995.3 |
| 20260906071929 | 77 | 276 | 0.0 | 0.0 | 0.00 | 0.00 | 0.00 | 97 | 995.4 |
| 20260906071758 | 77 | 276 | 0.0 | 0.0 | 0.00 | 0.00 | 0.00 | 97 | 995.3 |
| 20260906071628 | 77 | 276 | 0.0 | 0.0 | 0.00 | 0.00 | 0.00 | 97 | 995.3 |
| 20260906071459 | 77 | 276 | 0.0 | 0.0 | 0.00 | 0.00 | 0.00 | 98 | 995.1 |
| 20260906071329 | 77 | 276 | 0.0 | 0.0 | 0.00 | 0.00 | 0.00 | 98 | 995.4 |
| 20260906071159 | 77 | 276 | 0.0 | 0.0 | 0.00 | 0.00 | 0.00 | 98 | 995.4 |
| 20260906071031 | 77 | 276 | 0.0 | 0.0 | 0.00 | 0.00 | 0.00 | 98 | 995.4 |
| 20260906070929 | 77 | 276 | 0.0 | 0.0 | 0.00 | 0.00 | 0.00 | 98 | 995.4 |
| 20260906070758 | 77 | 276 | 0.0 | 0.0 | 0.00 | 0.00 | 0.00 | 98 | 995.3 |
| 20260906070628 | 77 | 276 | 0.0 | 0.0 | 0.00 | 0.00 | 0.00 | 98 | 995.1 |
| 20260906070459 | 77 | 276 | 0.0 | 0.0 | 0.00 | 0.00 | 0.00 | 97 | 995.3 |
| 20260906070358 | 77 | 276 | 0.0 | 0.0 | 0.00 | 0.00 | 0.00 | 97 | 995.4 |
| 20260906070228 | 77 | 276 | 0.0 | 0.0 | 0.00 | 0.00 | 0.00 | 97 | 995.1 |
| 20260906070058 | 77 | 276 | 0.0 | 0.0 | 0.00 | 0.00 | 0.00 | 98 | 995.4 |
| 20260906065932 | 77 | 276 | 0.0 | 0.0 | 0.00 | 0.00 | 0.00 | 98 | 995.4 |
| 20260906065634 | 77 | 276 | 0.0 | 0.0 | 0.00 | 0.00 | 0.00 | 97 | 995.4 |
| 20260906065458 | 77 | 276 | 0.0 | 0.0 | 0.00 | 0.00 | 0.00 | 97 | 995.4 |
| 20260906065328 | 77 | 276 | 0.0 | 0.0 | 0.00 | 0.00 | 0.00 | 97 | 995.3 |
| 20260906065158 | 77 | 276 | 0.0 | 0.0 | 0.00 | 0.00 | 0.00 | 97 | 995.4 |
| 20260906065028 | 77 | 277 | 0.0 | 0.9 | 0.00 | 0.00 | 0.00 | 96 | 995.5 |
| 20260906064858 | 77 | 273 | 0.0 | 0.0 | 0.00 | 0.00 | 0.00 | 96 | 995.4 |
| 20260906064728 | 77 | 272 | 0.0 | 0.0 | 0.00 | 0.00 | 0.00 | 96 | 995.4 |
| 20260906064558 | 77 | 272 | 0.0 | 0.0 | 0.00 | 0.00 | 0.00 | 95 | 995.3 |
| 20260906064428 | 77 | 272 | 0.0 | 0.0 | 0.00 | 0.00 | 0.00 | 95 | 995.2 |
| 20260906064258 | 78 | 272 | 0.0 | 0.0 | 0.00 | 0.00 | 0.00 | 96 | 995.2 |
| 20260906064128 | 78 | 273 | 0.0 | 0.0 | 0.00 | 0.00 | 0.00 | 96 | 995.4 |
| 20260906063958 | 77 | 273 | 0.0 | 0.0 | 0.00 | 0.00 | 0.00 | 96 | 995.4 |
| 20260906063828 | 77 | 273 | 0.0 | 0.0 | 0.00 | 0.00 | 0.00 | 95 | 995.3 |
| 20260906063658 | 77 | 273 | 0.0 | 0.0 | 0.00 | 0.00 | 0.00 | 95 | 995.5 |
| 20260906063528 | 78 | 273 | 0.0 | 0.0 | 0.00 | 0.00 | 0.00 | 95 | 995.3 |
| 20260906063358 | 78 | 273 | 0.0 | 0.0 | 0.00 | 0.00 | 0.00 | 95 | 995.5 |
| 20260906063228 | 78 | 273 | 0.0 | 0.0 | 0.00 | 0.00 | 0.00 | 95 | 995.3 |
| 20260906063058 | 78 | 272 | 0.0 | 0.0 | 0.00 | 0.00 | 0.00 | 94 | 995.6 |
| 20260906062929 | 78 | 272 | 0.0 | 0.0 | 0.00 | 0.00 | 0.00 | 94 | 995.5 |
| 20260906062828 | 78 | 272 | 0.0 | 0.0 | 0.00 | 0.00 | 0.00 | 94 | 995.6 |
| 20260906062658 | 78 | 272 | 0.0 | 0.0 | 0.00 | 0.00 | 0.00 | 93 | 995.7 |
| 20260906062529 | 78 | 272 | 0.0 | 0.0 | 0.00 | 0.00 | 0.00 | 93 | 995.5 |
| 20260906062358 | 78 | 272 | 0.0 | 0.0 | 0.00 | 0.00 | 0.00 | 93 | 995.5 |
| 20260906062228 | 78 | 272 | 0.0 | 0.0 | 0.00 | 0.00 | 0.00 | 93 | 995.6 |
| 20260906062059 | 78 | 272 | 0.0 | 0.0 | 0.00 | 0.00 | 0.00 | 93 | 995.4 |
| 20260906061929 | 78 | 272 | 0.0 | 0.0 | 0.00 | 0.00 | 0.00 | 93 | 995.7 |
| 20260906061759 | 78 | 272 | 0.0 | 0.0 | 0.00 | 0.00 | 0.00 | 93 | 995.6 |
| 20260906061630 | 78 | 272 | 0.0 | 0.0 | 0.00 | 0.00 | 0.00 | 93 | 995.6 |
| 20260906061458 | 78 | 272 | 0.0 | 0.0 | 0.00 | 0.00 | 0.00 | 93 | 995.5 |
| 20260906061328 | 78 | 272 | 0.0 | 0.0 | 0.00 | 0.00 | 0.00 | 93 | 995.6 |
| 20260906061158 | 78 | 272 | 0.0 | 0.0 | 0.00 | 0.00 | 0.00 | 93 | 995.6 |
| 20260906061028 | 78 | 272 | 0.0 | 0.0 | 0.00 | 0.00 | 0.00 | 93 | 995.6 |
| 20260906060859 | 78 | 272 | 0.0 | 0.0 | 0.00 | 0.00 | 0.00 | 93 | 995.7 |
| 20260906060728 | 78 | 272 | 0.0 | 0.0 | 0.00 | 0.00 | 0.00 | 93 | 995.4 |
| 20260906060600 | 78 | 272 | 0.0 | 0.0 | 0.00 | 0.00 | 0.00 | 93 | 995.7 |
| 20260906060458 | 78 | 272 | 0.0 | 0.0 | 0.00 | 0.00 | 0.00 | 93 | 995.6 |
| 20260906060329 | 78 | 272 | 0.0 | 0.0 | 0.00 | 0.00 | 0.00 | 93 | 995.7 |
| 20260906060158 | 78 | 272 | 0.0 | 0.0 | 0.00 | 0.00 | 0.00 | 92 | 995.7 |
| 20260906060029 | 78 | 272 | 0.0 | 0.0 | 0.00 | 0.00 | 0.00 | 92 | 995.6 |
| 20260906055900 | 78 | 272 | 0.0 | 0.0 | 0.00 | 0.00 | 0.00 | 92 | 995.6 |
| 20260906055728 | 78 | 272 | 0.0 | 0.0 | 0.00 | 0.00 | 0.00 | 92 | 995.7 |
| 20260906055558 | 78 | 272 | 0.0 | 0.0 | 0.00 | 0.00 | 0.00 | 92 | 995.9 |
| 20260906055429 | 78 | 272 | 0.0 | 0.0 | 0.00 | 0.00 | 0.00 | 92 | 995.8 |
| 20260906055300 | 78 | 272 | 0.0 | 0.0 | 0.00 | 0.00 | 0.00 | 93 | 995.6 |
| 20260906055128 | 78 | 272 | 0.0 | 0.0 | 0.00 | 0.00 | 0.00 | 93 | 995.6 |
| 20260906055001 | 78 | 272 | 0.0 | 0.0 | 0.00 | 0.00 | 0.00 | 93 | 995.6 |
| 20260906054858 | 78 | 272 | 0.0 | 0.0 | 0.00 | 0.00 | 0.00 | 93 | 995.7 |
| 20260906054728 | 78 | 272 | 0.0 | 0.0 | 0.00 | 0.00 | 0.00 | 93 | 995.7 |
| 20260906054559 | 78 | 272 | 0.0 | 0.0 | 0.00 | 0.00 | 0.00 | 93 | 995.8 |
| 20260906054429 | 78 | 272 | 0.0 | 0.0 | 0.00 | 0.00 | 0.00 | 93 | 995.9 |
| 20260906054258 | 78 | 272 | 0.0 | 0.0 | 0.00 | 0.00 | 0.00 | 93 | 995.7 |
| 20260906054129 | 78 | 272 | 0.0 | 0.0 | 0.00 | 0.00 | 0.00 | 93 | 995.8 |
| 20260906053958 | 79 | 272 | 0.0 | 0.0 | 0.00 | 0.00 | 0.00 | 94 | 995.9 |
| 20260906053828 | 79 | 272 | 0.0 | 0.0 | 0.00 | 0.00 | 0.00 | 94 | 996.0 |
| 20260906053659 | 79 | 272 | 0.0 | 0.0 | 0.00 | 0.00 | 0.00 | 94 | 995.8 |
| 20260906053528 | 79 | 272 | 0.0 | 0.0 | 0.00 | 0.00 | 0.00 | 94 | 995.8 |
| 20260906053400 | 79 | 272 | 0.0 | 0.0 | 0.00 | 0.00 | 0.00 | 94 | 995.8 |
| 20260906053229 | 79 | 272 | 0.0 | 0.0 | 0.00 | 0.00 | 0.00 | 95 | 995.8 |
| 20260906053058 | 79 | 272 | 0.0 | 0.0 | 0.00 | 0.00 | 0.00 | 95 | 995.7 |
| 20260906052928 | 79 | 272 | 0.0 | 0.0 | 0.00 | 0.00 | 0.00 | 95 | 995.9 |
| 20260906052759 | 79 | 272 | 0.0 | 0.0 | 0.00 | 0.00 | 0.00 | 95 | 995.9 |
| 20260906052628 | 79 | 272 | 0.0 | 0.0 | 0.00 | 0.00 | 0.00 | 95 | 995.8 |
| 20260906052458 | 79 | 272 | 0.0 | 0.0 | 0.00 | 0.00 | 0.00 | 94 | 995.8 |
| 20260906052331 | 79 | 272 | 0.0 | 0.0 | 0.00 | 0.00 | 0.00 | 94 | 995.7 |
| 20260906052229 | 79 | 272 | 0.0 | 0.0 | 0.00 | 0.00 | 0.00 | 94 | 995.8 |
| 20260906052058 | 79 | 272 | 0.0 | 0.0 | 0.00 | 0.00 | 0.00 | 94 | 995.9 |
| 20260906051929 | 79 | 272 | 0.0 | 0.0 | 0.00 | 0.00 | 0.00 | 94 | 995.9 |
| 20260906051758 | 79 | 272 | 0.0 | 0.0 | 0.00 | 0.00 | 0.00 | 94 | 995.7 |
| 20260906051629 | 79 | 272 | 0.0 | 0.0 | 0.00 | 0.00 | 0.00 | 94 | 995.8 |
| 20260906051459 | 79 | 272 | 0.0 | 0.0 | 0.00 | 0.00 | 0.00 | 94 | 995.9 |
| 20260906051329 | 80 | 272 | 0.0 | 0.0 | 0.00 | 0.00 | 0.00 | 93 | 995.8 |
| 20260906051158 | 80 | 272 | 0.0 | 0.0 | 0.00 | 0.00 | 0.00 | 93 | 995.9 |
| 20260906051029 | 80 | 272 | 0.0 | 0.0 | 0.00 | 0.00 | 0.00 | 93 | 996.0 |
| 20260906050858 | 80 | 272 | 0.0 | 0.0 | 0.00 | 0.00 | 0.00 | 93 | 996.1 |
| 20260906050728 | 80 | 272 | 0.0 | 0.0 | 0.00 | 0.00 | 0.00 | 93 | 995.9 |
| 20260906050601 | 80 | 272 | 0.0 | 0.0 | 0.00 | 0.00 | 0.00 | 92 | 995.8 |
| 20260906045859 | 80 | 273 | 0.0 | 0.0 | 0.00 | 0.00 | 0.00 | 90 | 996.0 |
| 20260906045758 | 80 | 273 | 0.0 | 0.0 | 0.00 | 0.00 | 0.00 | 90 | 996.1 |
| 20260906045629 | 80 | 273 | 0.0 | 0.0 | 0.00 | 0.00 | 0.00 | 91 | 995.9 |
| 20260906045528 | 80 | 273 | 0.0 | 0.0 | 0.00 | 0.00 | 0.00 | 91 | 996.0 |
| 20260906045428 | 80 | 273 | 0.0 | 0.0 | 0.00 | 0.00 | 0.00 | 91 | 996.0 |
| 20260906045158 | 80 | 273 | 0.0 | 0.0 | 0.00 | 0.00 | 0.00 | 89 | 996.1 |
| 20260906045058 | 80 | 273 | 0.0 | 0.0 | 0.00 | 0.00 | 0.00 | 87 | 996.0 |
| 20260906044958 | 80 | 273 | 0.0 | 0.0 | 0.00 | 0.00 | 0.00 | 87 | 995.9 |
| 20260906044829 | 79 | 272 | 0.0 | 0.0 | 0.00 | 0.00 | 0.00 | 89 | 996.0 |
| 20260906044728 | 79 | 272 | 0.0 | 0.0 | 0.00 | 0.00 | 0.00 | 90 | 996.1 |
| 20260906044628 | 79 | 272 | 0.0 | 0.0 | 0.00 | 0.00 | 0.00 | 91 | 996.0 |
| 20260906044528 | 80 | 272 | 0.0 | 0.0 | 0.00 | 0.00 | 0.00 | 91 | 995.9 |
| 20260906044400 | 80 | 272 | 0.0 | 0.0 | 0.00 | 0.00 | 0.00 | 92 | 996.0 |
| 20260906044258 | 80 | 272 | 0.0 | 0.0 | 0.00 | 0.00 | 0.00 | 92 | 995.9 |
| 20260906044158 | 80 | 272 | 0.0 | 0.0 | 0.00 | 0.00 | 0.00 | 93 | 996.1 |
| 20260906044058 | 80 | 272 | 0.0 | 0.0 | 0.00 | 0.00 | 0.00 | 92 | 995.8 |
| 20260906043929 | 80 | 272 | 0.0 | 0.0 | 0.00 | 0.00 | 0.00 | 90 | 995.9 |
| 20260906043828 | 80 | 272 | 0.0 | 0.0 | 0.00 | 0.00 | 0.00 | 91 | 995.9 |
| 20260906043728 | 80 | 272 | 0.0 | 0.0 | 0.00 | 0.00 | 0.00 | 91 | 995.8 |
| 20260906043628 | 80 | 272 | 0.0 | 0.0 | 0.00 | 0.00 | 0.00 | 90 | 995.9 |
| 20260906043459 | 80 | 272 | 0.0 | 0.0 | 0.00 | 0.00 | 0.00 | 91 | 995.9 |
| 20260906043358 | 80 | 272 | 0.0 | 0.0 | 0.00 | 0.00 | 0.00 | 91 | 995.9 |
| 20260906043258 | 80 | 272 | 0.0 | 0.0 | 0.00 | 0.00 | 0.00 | 91 | 995.9 |
| 20260906043158 | 80 | 272 | 0.0 | 0.0 | 0.00 | 0.00 | 0.00 | 92 | 996.0 |
| 20260906043058 | 80 | 272 | 0.0 | 0.0 | 0.00 | 0.00 | 0.00 | 92 | 995.9 |
| 20260906042958 | 80 | 272 | 0.0 | 0.0 | 0.00 | 0.00 | 0.00 | 92 | 996.0 |
| 20260906042858 | 79 | 272 | 0.0 | 0.0 | 0.00 | 0.00 | 0.00 | 91 | 995.8 |
| 20260906042729 | 79 | 272 | 0.0 | 0.0 | 0.00 | 0.00 | 0.00 | 90 | 995.9 |
| 20260906042600 | 79 | 272 | 0.0 | 0.0 | 0.00 | 0.00 | 0.00 | 90 | 996.0 |
| 20260906042458 | 79 | 272 | 0.0 | 0.0 | 0.00 | 0.00 | 0.00 | 90 | 996.0 |
| 20260906042358 | 79 | 272 | 0.0 | 0.0 | 0.00 | 0.00 | 0.00 | 91 | 996.0 |
| 20260906042258 | 80 | 272 | 0.0 | 0.0 | 0.00 | 0.00 | 0.00 | 92 | 996.2 |
| 20260906042129 | 80 | 272 | 0.0 | 0.0 | 0.00 | 0.00 | 0.00 | 94 | 996.1 |
| 20260906042028 | 80 | 272 | 0.0 | 0.0 | 0.00 | 0.00 | 0.00 | 94 | 996.1 |
| 20260906041928 | 80 | 272 | 0.0 | 0.0 | 0.00 | 0.00 | 0.00 | 94 | 996.2 |
| 20260906041828 | 79 | 272 | 0.0 | 0.0 | 0.00 | 0.00 | 0.00 | 94 | 996.0 |
| 20260906041658 | 79 | 272 | 0.0 | 0.0 | 0.00 | 0.00 | 0.00 | 93 | 996.0 |
| 20260906041558 | 79 | 272 | 0.0 | 0.0 | 0.00 | 0.00 | 0.00 | 93 | 996.1 |
| 20260906041458 | 79 | 272 | 0.0 | 0.0 | 0.00 | 0.00 | 0.00 | 92 | 996.2 |
| 20260906041329 | 80 | 272 | 0.0 | 0.0 | 0.00 | 0.00 | 0.00 | 94 | 996.0 |
| 20260906041228 | 80 | 272 | 0.0 | 0.0 | 0.00 | 0.00 | 0.00 | 94 | 995.9 |
| 20260906041128 | 80 | 272 | 0.0 | 0.0 | 0.00 | 0.00 | 0.00 | 94 | 996.3 |
| 20260906041029 | 80 | 272 | 0.0 | 0.0 | 0.00 | 0.00 | 0.00 | 94 | 996.0 |
| 20260906040928 | 80 | 272 | 0.0 | 0.0 | 0.00 | 0.00 | 0.00 | 94 | 996.0 |
| 20260906040759 | 80 | 272 | 0.0 | 0.0 | 0.00 | 0.00 | 0.00 | 94 | 996.0 |
| 20260906040628 | 80 | 272 | 0.0 | 0.0 | 0.00 | 0.00 | 0.00 | 94 | 996.0 |
| 20260906040528 | 80 | 272 | 0.0 | 0.0 | 0.00 | 0.00 | 0.00 | 94 | 996.2 |
| 20260906040428 | 80 | 272 | 0.0 | 0.0 | 0.00 | 0.00 | 0.00 | 94 | 996.1 |
| 20260906040259 | 81 | 272 | 0.0 | 0.0 | 0.00 | 0.00 | 0.00 | 93 | 995.9 |
| 20260906040158 | 80 | 272 | 0.0 | 0.0 | 0.00 | 0.00 | 0.00 | 93 | 995.9 |
| 20260906040058 | 80 | 272 | 0.0 | 0.0 | 0.00 | 0.00 | 0.00 | 92 | 996.0 |
| 20260906035959 | 80 | 272 | 0.0 | 0.0 | 0.00 | 0.00 | 0.00 | 91 | 996.0 |
| 20260906035858 | 80 | 272 | 0.0 | 0.0 | 0.00 | 0.00 | 0.00 | 90 | 996.0 |
| 20260906035729 | 79 | 272 | 0.0 | 0.0 | 0.00 | 0.00 | 0.00 | 89 | 996.1 |
| 20260906035628 | 79 | 272 | 0.0 | 0.0 | 0.00 | 0.00 | 0.00 | 89 | 995.7 |
| 20260906035528 | 80 | 272 | 0.0 | 0.0 | 0.00 | 0.00 | 0.00 | 90 | 996.0 |
| 20260906035428 | 80 | 272 | 0.0 | 0.0 | 0.00 | 0.00 | 0.00 | 91 | 995.8 |
| 20260906035328 | 80 | 272 | 0.0 | 0.0 | 0.00 | 0.00 | 0.00 | 92 | 995.9 |
| 20260906035159 | 80 | 272 | 0.0 | 0.0 | 0.00 | 0.00 | 0.00 | 92 | 996.0 |
| 20260906035029 | 81 | 272 | 0.0 | 0.0 | 0.00 | 0.00 | 0.00 | 93 | 995.9 |
| 20260906034928 | 81 | 272 | 0.0 | 0.0 | 0.00 | 0.00 | 0.00 | 93 | 995.8 |
| 20260906034828 | 81 | 271 | 0.0 | 0.0 | 0.00 | 0.00 | 0.00 | 93 | 995.9 |
| 20260906034659 | 81 | 271 | 0.0 | 0.0 | 0.00 | 0.00 | 0.00 | 92 | 995.8 |
| 20260906034559 | 81 | 271 | 0.0 | 0.0 | 0.00 | 0.00 | 0.00 | 91 | 995.9 |
| 20260906034458 | 81 | 271 | 0.0 | 0.0 | 0.00 | 0.00 | 0.00 | 90 | 995.6 |
| 20260906034359 | 81 | 271 | 0.0 | 0.0 | 0.00 | 0.00 | 0.00 | 89 | 995.7 |
| 20260906034258 | 80 | 271 | 0.0 | 0.0 | 0.00 | 0.00 | 0.00 | 88 | 995.8 |
| 20260906034130 | 80 | 271 | 0.0 | 0.0 | 0.00 | 0.00 | 0.00 | 88 | 995.7 |
| 20260906034028 | 80 | 271 | 0.0 | 0.0 | 0.00 | 0.00 | 0.00 | 90 | 995.7 |
| 20260906033859 | 80 | 271 | 0.0 | 0.0 | 0.00 | 0.00 | 0.00 | 90 | 995.7 |
| 20260906033730 | 80 | 271 | 0.0 | 0.0 | 0.00 | 0.00 | 0.00 | 93 | 995.6 |
| 20260906033628 | 80 | 272 | 0.0 | 0.0 | 0.00 | 0.00 | 0.00 | 94 | 995.8 |
| 20260906033528 | 80 | 271 | 0.0 | 0.0 | 0.00 | 0.00 | 0.00 | 94 | 995.8 |
| 20260906033428 | 80 | 271 | 0.0 | 0.0 | 0.00 | 0.00 | 0.00 | 94 | 996.0 |
| 20260906033329 | 80 | 271 | 0.0 | 0.0 | 0.00 | 0.00 | 0.00 | 94 | 995.8 |
| 20260906033228 | 80 | 271 | 0.0 | 0.0 | 0.00 | 0.00 | 0.00 | 94 | 995.7 |
| 20260906033059 | 80 | 271 | 0.0 | 0.0 | 0.00 | 0.00 | 0.00 | 92 | 995.6 |
| 20260906032958 | 80 | 271 | 0.0 | 0.0 | 0.00 | 0.00 | 0.00 | 92 | 995.9 |
| 20260906032858 | 80 | 271 | 0.0 | 0.0 | 0.00 | 0.00 | 0.00 | 92 | 995.6 |
| 20260906032758 | 80 | 271 | 0.0 | 0.0 | 0.00 | 0.00 | 0.00 | 91 | 995.6 |
| 20260906032658 | 80 | 271 | 0.0 | 0.0 | 0.00 | 0.00 | 0.00 | 91 | 995.6 |
| 20260906032529 | 80 | 271 | 0.0 | 0.0 | 0.00 | 0.00 | 0.00 | 91 | 995.7 |
| 20260906032359 | 79 | 271 | 0.0 | 0.0 | 0.00 | 0.00 | 0.00 | 92 | 995.6 |
| 20260906032258 | 79 | 272 | 0.0 | 0.0 | 0.00 | 0.00 | 0.00 | 93 | 995.6 |
| 20260906032158 | 79 | 271 | 0.0 | 0.0 | 0.00 | 0.00 | 0.00 | 94 | 995.6 |
| 20260906032058 | 79 | 271 | 0.0 | 0.0 | 0.00 | 0.00 | 0.00 | 93 | 995.8 |
| 20260906031929 | 79 | 271 | 0.0 | 0.0 | 0.00 | 0.00 | 0.00 | 93 | 995.7 |
| 20260906031828 | 79 | 271 | 0.0 | 0.0 | 0.00 | 0.00 | 0.00 | 93 | 995.6 |
| 20260906031728 | 79 | 272 | 0.0 | 0.0 | 0.00 | 0.00 | 0.00 | 93 | 995.5 |
| 20260906031628 | 80 | 271 | 0.0 | 0.0 | 0.00 | 0.00 | 0.00 | 93 | 995.7 |
| 20260906031528 | 80 | 272 | 0.0 | 0.0 | 0.00 | 0.00 | 0.00 | 92 | 995.5 |
| 20260906031429 | 80 | 271 | 0.0 | 0.0 | 0.00 | 0.00 | 0.00 | 92 | 995.8 |
| 20260906031328 | 80 | 272 | 0.0 | 0.0 | 0.00 | 0.00 | 0.00 | 92 | 995.8 |
| 20260906031229 | 80 | 271 | 0.0 | 0.0 | 0.00 | 0.00 | 0.00 | 92 | 995.7 |
| 20260906031059 | 81 | 271 | 0.0 | 0.0 | 0.00 | 0.00 | 0.00 | 92 | 995.8 |
| 20260906030958 | 80 | 271 | 0.0 | 0.0 | 0.00 | 0.00 | 0.00 | 91 | 995.5 |
| 20260906030858 | 80 | 271 | 0.0 | 0.0 | 0.00 | 0.00 | 0.00 | 91 | 995.5 |
| 20260906030758 | 80 | 271 | 0.0 | 0.0 | 0.00 | 0.00 | 0.00 | 90 | 995.7 |
| 20260906030658 | 80 | 271 | 0.0 | 0.0 | 0.00 | 0.00 | 0.00 | 89 | 995.6 |
| 20260906030558 | 80 | 271 | 0.0 | 0.0 | 0.00 | 0.00 | 0.00 | 88 | 995.4 |
| 20260906030458 | 80 | 271 | 0.0 | 0.0 | 0.00 | 0.00 | 0.00 | 88 | 995.4 |
| 20260906030329 | 80 | 271 | 0.0 | 0.0 | 0.00 | 0.00 | 0.00 | 88 | 995.4 |
| 20260906030159 | 80 | 271 | 0.0 | 0.0 | 0.00 | 0.00 | 0.00 | 88 | 995.5 |
| 20260906030058 | 80 | 271 | 0.0 | 0.0 | 0.00 | 0.00 | 0.00 | 87 | 995.4 |
| 20260906025958 | 80 | 271 | 0.0 | 0.0 | 0.00 | 0.00 | 0.00 | 87 | 995.3 |
| 20260906025858 | 80 | 271 | 0.0 | 0.0 | 0.00 | 0.00 | 0.00 | 87 | 995.3 |
| 20260906025758 | 80 | 271 | 0.0 | 0.0 | 0.00 | 0.00 | 0.00 | 87 | 995.4 |
| 20260906025658 | 80 | 271 | 0.0 | 0.0 | 0.00 | 0.00 | 0.00 | 87 | 995.5 |
| 20260906025558 | 80 | 271 | 0.0 | 0.0 | 0.00 | 0.00 | 0.00 | 87 | 995.4 |
| 20260906025429 | 80 | 271 | 0.0 | 0.0 | 0.00 | 0.00 | 0.00 | 87 | 995.5 |
| 20260906025328 | 80 | 271 | 0.0 | 0.0 | 0.00 | 0.00 | 0.00 | 87 | 995.3 |
| 20260906025159 | 80 | 271 | 0.0 | 0.0 | 0.00 | 0.00 | 0.00 | 88 | 995.3 |
| 20260906025058 | 80 | 271 | 0.0 | 0.0 | 0.00 | 0.00 | 0.00 | 88 | 995.4 |
| 20260906024958 | 80 | 271 | 0.0 | 0.0 | 0.00 | 0.00 | 0.00 | 88 | 995.3 |
| 20260906024831 | 80 | 271 | 0.0 | 0.0 | 0.00 | 0.00 | 0.00 | 88 | 995.5 |
| 20260906024728 | 80 | 271 | 0.0 | 0.0 | 0.00 | 0.00 | 0.00 | 88 | 995.5 |
| 20260906024628 | 80 | 271 | 0.0 | 0.0 | 0.00 | 0.00 | 0.00 | 89 | 995.4 |
| 20260906024529 | 80 | 271 | 0.0 | 0.0 | 0.00 | 0.00 | 0.00 | 89 | 995.3 |
| 20260906024400 | 80 | 271 | 0.0 | 0.0 | 0.00 | 0.00 | 0.00 | 89 | 995.4 |
| 20260906024258 | 80 | 271 | 0.0 | 0.0 | 0.00 | 0.00 | 0.00 | 89 | 995.2 |
| 20260906024158 | 80 | 271 | 0.0 | 0.0 | 0.00 | 0.00 | 0.00 | 89 | 995.3 |
| 20260906024058 | 80 | 271 | 0.0 | 0.0 | 0.00 | 0.00 | 0.00 | 90 | 995.3 |
| 20260906023958 | 80 | 271 | 0.0 | 0.0 | 0.00 | 0.00 | 0.00 | 90 | 995.4 |
| 20260906023829 | 80 | 271 | 0.0 | 0.0 | 0.00 | 0.00 | 0.00 | 91 | 995.4 |
| 20260906023728 | 80 | 271 | 0.0 | 0.0 | 0.00 | 0.00 | 0.00 | 92 | 995.5 |
| 20260906023628 | 80 | 271 | 0.0 | 0.0 | 0.00 | 0.00 | 0.00 | 92 | 995.3 |
| 20260906023528 | 80 | 271 | 0.0 | 0.0 | 0.00 | 0.00 | 0.00 | 92 | 995.5 |
| 20260906023429 | 81 | 271 | 0.0 | 0.0 | 0.00 | 0.00 | 0.00 | 92 | 995.5 |
| 20260906023328 | 81 | 271 | 0.0 | 0.0 | 0.00 | 0.00 | 0.00 | 92 | 995.3 |
| 20260906023159 | 81 | 271 | 0.0 | 0.0 | 0.00 | 0.00 | 0.00 | 92 | 995.4 |
| 20260906023030 | 81 | 271 | 0.0 | 0.0 | 0.00 | 0.00 | 0.00 | 92 | 995.2 |
| 20260906022928 | 81 | 271 | 0.0 | 0.0 | 0.00 | 0.00 | 0.00 | 92 | 995.3 |
| 20260906022828 | 81 | 271 | 0.0 | 0.0 | 0.00 | 0.00 | 0.00 | 92 | 995.5 |
| 20260906022728 | 81 | 271 | 0.0 | 0.0 | 0.00 | 0.00 | 0.00 | 92 | 995.3 |
| 20260906022628 | 81 | 271 | 0.0 | 0.0 | 0.00 | 0.00 | 0.00 | 92 | 995.2 |
| 20260906022458 | 81 | 271 | 0.0 | 0.0 | 0.00 | 0.00 | 0.00 | 92 | 995.3 |
| 20260906022358 | 81 | 271 | 0.0 | 0.0 | 0.00 | 0.00 | 0.00 | 91 | 995.2 |
| 20260906022259 | 81 | 271 | 0.0 | 0.0 | 0.00 | 0.00 | 0.00 | 91 | 995.2 |
| 20260906022158 | 81 | 271 | 0.0 | 0.0 | 0.00 | 0.00 | 0.00 | 91 | 995.2 |
| 20260906022058 | 81 | 271 | 0.0 | 0.0 | 0.00 | 0.00 | 0.00 | 91 | 995.1 |
| 20260906021958 | 81 | 271 | 0.0 | 0.0 | 0.00 | 0.00 | 0.00 | 91 | 995.2 |
| 20260906021858 | 81 | 271 | 0.0 | 0.0 | 0.00 | 0.00 | 0.00 | 90 | 995.4 |
| 20260906021729 | 81 | 271 | 0.0 | 0.0 | 0.00 | 0.00 | 0.00 | 90 | 995.2 |
| 20260906021628 | 81 | 271 | 0.0 | 0.0 | 0.00 | 0.00 | 0.00 | 90 | 995.2 |
| 20260906021528 | 81 | 271 | 0.0 | 0.0 | 0.00 | 0.00 | 0.00 | 90 | 995.0 |
| 20260906021428 | 81 | 271 | 0.0 | 0.0 | 0.00 | 0.00 | 0.00 | 90 | 995.2 |
| 20260906021328 | 81 | 271 | 0.0 | 0.0 | 0.00 | 0.00 | 0.00 | 90 | 995.2 |
| 20260906021228 | 81 | 271 | 0.0 | 0.0 | 0.00 | 0.00 | 0.00 | 90 | 995.2 |
| 20260906021059 | 81 | 271 | 0.0 | 0.0 | 0.00 | 0.00 | 0.00 | 90 | 995.2 |
| 20260906020929 | 81 | 271 | 0.0 | 0.0 | 0.00 | 0.00 | 0.00 | 90 | 995.2 |
| 20260906020759 | 81 | 271 | 0.0 | 0.0 | 0.00 | 0.00 | 0.00 | 89 | 995.1 |
| 20260906020629 | 81 | 271 | 0.0 | 0.0 | 0.00 | 0.00 | 0.00 | 91 | 995.4 |
| 20260906020528 | 81 | 271 | 0.0 | 0.0 | 0.00 | 0.00 | 0.00 | 91 | 995.1 |
| 20260906020359 | 81 | 271 | 0.0 | 0.0 | 0.00 | 0.00 | 0.00 | 91 | 995.1 |
| 20260906020258 | 82 | 271 | 0.0 | 0.0 | 0.00 | 0.00 | 0.00 | 91 | 995.1 |
| 20260906020158 | 82 | 271 | 0.0 | 0.0 | 0.00 | 0.00 | 0.00 | 93 | 995.0 |
| 20260906020058 | 82 | 271 | 0.0 | 0.0 | 0.00 | 0.00 | 0.00 | 93 | 994.9 |
| 20260906015958 | 82 | 271 | 0.0 | 0.0 | 0.00 | 0.00 | 0.00 | 92 | 994.8 |
| 20260906015858 | 82 | 271 | 0.0 | 0.0 | 0.00 | 0.00 | 0.00 | 92 | 995.1 |
| 20260906015729 | 82 | 271 | 0.0 | 0.0 | 0.00 | 0.00 | 0.00 | 92 | 994.8 |
| 20260906015628 | 82 | 271 | 0.0 | 0.0 | 0.00 | 0.00 | 0.00 | 92 | 994.8 |
| 20260906015528 | 82 | 271 | 0.0 | 0.0 | 0.00 | 0.00 | 0.00 | 91 | 994.8 |
| 20260906015428 | 82 | 271 | 0.0 | 0.0 | 0.00 | 0.00 | 0.00 | 91 | 994.9 |
| 20260906015259 | 82 | 271 | 0.0 | 0.0 | 0.00 | 0.00 | 0.00 | 91 | 994.8 |
| 20260906015159 | 82 | 271 | 0.0 | 0.0 | 0.00 | 0.00 | 0.00 | 91 | 994.9 |
| 20260906015029 | 82 | 271 | 0.0 | 0.0 | 0.00 | 0.00 | 0.00 | 90 | 994.9 |
| 20260906014928 | 82 | 271 | 0.0 | 0.0 | 0.00 | 0.00 | 0.00 | 89 | 994.8 |
| 20260906014758 | 83 | 271 | 0.0 | 0.0 | 0.00 | 0.00 | 0.00 | 89 | 994.9 |
| 20260906014658 | 83 | 271 | 0.0 | 0.0 | 0.00 | 0.00 | 0.00 | 88 | 995.0 |
| 20260906014529 | 83 | 271 | 0.0 | 0.0 | 0.00 | 0.00 | 0.00 | 85 | 994.8 |
| 20260906014428 | 83 | 271 | 0.0 | 0.0 | 0.00 | 0.00 | 0.00 | 84 | 994.9 |
| 20260906014259 | 83 | 271 | 0.0 | 0.0 | 0.00 | 0.00 | 0.00 | 83 | 994.9 |
| 20260906014158 | 83 | 271 | 0.0 | 0.0 | 0.00 | 0.00 | 0.00 | 83 | 994.9 |
| 20260906014059 | 83 | 271 | 0.0 | 0.0 | 0.00 | 0.00 | 0.00 | 83 | 994.6 |
| 20260906013929 | 83 | 271 | 0.0 | 0.0 | 0.00 | 0.00 | 0.00 | 80 | 995.0 |
| 20260906013828 | 83 | 271 | 0.0 | 0.0 | 0.00 | 0.00 | 0.00 | 79 | 994.8 |
| 20260906013728 | 83 | 271 | 0.0 | 0.0 | 0.00 | 0.00 | 0.00 | 80 | 994.6 |
| 20260906013628 | 83 | 271 | 0.0 | 0.0 | 0.00 | 0.00 | 0.00 | 81 | 994.8 |
| 20260906013459 | 83 | 271 | 0.0 | 0.0 | 0.00 | 0.00 | 0.00 | 80 | 994.8 |
| 20260906013358 | 83 | 271 | 0.0 | 0.0 | 0.00 | 0.00 | 0.00 | 80 | 995.0 |
| 20260906013230 | 83 | 271 | 0.0 | 0.0 | 0.00 | 0.00 | 0.00 | 81 | 994.9 |
| 20260906013128 | 83 | 271 | 0.0 | 0.0 | 0.00 | 0.00 | 0.00 | 82 | 994.7 |
| 20260906013029 | 83 | 271 | 0.0 | 0.0 | 0.00 | 0.00 | 0.00 | 82 | 994.9 |
| 20260906012859 | 83 | 271 | 0.0 | 0.0 | 0.00 | 0.00 | 0.00 | 84 | 994.9 |
| 20260906012728 | 83 | 271 | 0.0 | 0.0 | 0.00 | 0.00 | 0.00 | 85 | 994.8 |
| 20260906012628 | 83 | 271 | 0.0 | 0.0 | 0.00 | 0.00 | 0.00 | 86 | 994.9 |
| 20260906012528 | 83 | 271 | 0.0 | 0.0 | 0.00 | 0.00 | 0.00 | 86 | 994.7 |
| 20260906012428 | 83 | 271 | 0.0 | 0.0 | 0.00 | 0.00 | 0.00 | 85 | 994.5 |
| 20260906012328 | 83 | 271 | 0.0 | 0.0 | 0.00 | 0.00 | 0.00 | 85 | 994.8 |
| 20260906012200 | 83 | 271 | 0.0 | 0.0 | 0.00 | 0.00 | 0.00 | 84 | 994.7 |
| 20260906012058 | 83 | 271 | 0.0 | 0.0 | 0.00 | 0.00 | 0.00 | 84 | 994.8 |
| 20260906011958 | 83 | 271 | 0.0 | 0.0 | 0.00 | 0.00 | 0.00 | 84 | 994.7 |
| 20260906011858 | 83 | 271 | 0.0 | 0.0 | 0.00 | 0.00 | 0.00 | 83 | 994.9 |
| 20260906011758 | 83 | 271 | 0.0 | 0.0 | 0.00 | 0.00 | 0.00 | 83 | 994.7 |
| 20260906011629 | 83 | 271 | 0.0 | 0.0 | 0.00 | 0.00 | 0.00 | 82 | 994.7 |
| 20260906011459 | 83 | 271 | 0.0 | 0.0 | 0.00 | 0.00 | 0.00 | 83 | 994.8 |
| 20260906011358 | 83 | 271 | 0.0 | 0.0 | 0.00 | 0.00 | 0.00 | 83 | 994.5 |
| 20260906011258 | 84 | 271 | 0.0 | 0.0 | 0.00 | 0.00 | 0.00 | 83 | 994.8 |
| 20260906011158 | 84 | 271 | 0.0 | 0.0 | 0.00 | 0.00 | 0.00 | 83 | 994.6 |
| 20260906011029 | 84 | 271 | 0.0 | 0.0 | 0.00 | 0.00 | 0.00 | 84 | 994.7 |
| 20260906010928 | 84 | 271 | 0.0 | 0.0 | 0.00 | 0.00 | 0.00 | 84 | 994.7 |
| 20260906010828 | 84 | 271 | 0.0 | 0.0 | 0.00 | 0.00 | 0.00 | 85 | 994.6 |
| 20260906010728 | 84 | 271 | 0.0 | 0.0 | 0.00 | 0.00 | 0.00 | 85 | 994.8 |
| 20260906010628 | 84 | 271 | 0.0 | 0.0 | 0.00 | 0.00 | 0.00 | 85 | 994.7 |
| 20260906010529 | 84 | 271 | 0.0 | 0.0 | 0.00 | 0.00 | 0.00 | 85 | 994.7 |
| 20260906010428 | 84 | 271 | 0.0 | 0.0 | 0.00 | 0.00 | 0.00 | 85 | 994.7 |
| 20260906010328 | 84 | 271 | 0.0 | 0.0 | 0.00 | 0.00 | 0.00 | 85 | 994.9 |
| 20260906010159 | 84 | 271 | 0.0 | 0.0 | 0.00 | 0.00 | 0.00 | 85 | 994.6 |
| 20260906010058 | 84 | 271 | 0.0 | 0.0 | 0.00 | 0.00 | 0.00 | 85 | 994.8 |
| 20260906005958 | 84 | 271 | 0.0 | 0.0 | 0.00 | 0.00 | 0.00 | 85 | 994.6 |
| 20260906005858 | 84 | 271 | 0.0 | 0.0 | 0.00 | 0.00 | 0.00 | 85 | 994.7 |
| 20260906005733 | 84 | 271 | 0.0 | 0.0 | 0.00 | 0.00 | 0.00 | 84 | 994.8 |
| 20260906005628 | 85 | 271 | 0.0 | 0.0 | 0.00 | 0.00 | 0.00 | 84 | 994.8 |
| 20260906005528 | 85 | 271 | 0.0 | 0.0 | 0.00 | 0.00 | 0.00 | 84 | 994.5 |
| 20260906005428 | 85 | 271 | 0.0 | 0.0 | 0.00 | 0.00 | 0.00 | 84 | 994.6 |
| 20260906005328 | 85 | 271 | 0.0 | 0.0 | 0.00 | 0.00 | 0.00 | 84 | 994.5 |
| 20260906005228 | 85 | 271 | 0.0 | 0.0 | 0.00 | 0.00 | 0.00 | 84 | 994.6 |
| 20260906005128 | 85 | 271 | 0.0 | 0.0 | 0.00 | 0.00 | 0.00 | 84 | 994.8 |
| 20260906004959 | 85 | 271 | 0.0 | 0.0 | 0.00 | 0.00 | 0.00 | 84 | 994.6 |
| 20260906004829 | 85 | 271 | 0.0 | 0.0 | 0.00 | 0.00 | 0.00 | 84 | 994.7 |
| 20260906004703 | 85 | 271 | 0.0 | 0.0 | 0.00 | 0.00 | 0.00 | 84 | 994.6 |
| 20260906004558 | 86 | 271 | 0.0 | 0.0 | 0.00 | 0.00 | 0.00 | 83 | 994.5 |
| 20260906004429 | 86 | 271 | 0.0 | 0.0 | 0.00 | 0.00 | 0.00 | 82 | 994.6 |
| 20260906004328 | 86 | 271 | 0.0 | 0.0 | 0.00 | 0.00 | 0.00 | 82 | 994.4 |
| 20260906004228 | 86 | 271 | 0.0 | 0.0 | 0.00 | 0.00 | 0.00 | 81 | 994.5 |
| 20260906004128 | 86 | 271 | 0.0 | 0.0 | 0.00 | 0.00 | 0.00 | 80 | 994.5 |
| 20260906004029 | 86 | 271 | 0.0 | 0.0 | 0.00 | 0.00 | 0.00 | 79 | 994.4 |
| 20260906003859 | 86 | 271 | 0.0 | 0.0 | 0.00 | 0.00 | 0.00 | 79 | 994.5 |
| 20260906003758 | 86 | 271 | 0.0 | 0.0 | 0.00 | 0.00 | 0.00 | 79 | 994.4 |
| 20260906003658 | 86 | 271 | 0.0 | 0.0 | 0.00 | 0.00 | 0.00 | 79 | 994.6 |
| 20260906003558 | 86 | 271 | 0.0 | 0.0 | 0.00 | 0.00 | 0.00 | 79 | 994.5 |
| 20260906003459 | 86 | 271 | 0.0 | 0.0 | 0.00 | 0.00 | 0.00 | 79 | 994.5 |
| 20260906003329 | 86 | 271 | 0.0 | 0.0 | 0.00 | 0.00 | 0.00 | 80 | 994.5 |
| 20260906003228 | 86 | 271 | 0.0 | 0.0 | 0.00 | 0.00 | 0.00 | 80 | 994.7 |
| 20260906003059 | 87 | 271 | 0.0 | 0.0 | 0.00 | 0.00 | 0.00 | 80 | 994.4 |
| 20260906002958 | 87 | 271 | 0.0 | 0.0 | 0.00 | 0.00 | 0.00 | 80 | 994.5 |
| 20260906002858 | 87 | 271 | 0.0 | 0.0 | 0.00 | 0.00 | 0.00 | 80 | 994.6 |
| 20260906002758 | 88 | 271 | 0.0 | 0.0 | 0.00 | 0.00 | 0.00 | 80 | 994.6 |
| 20260906002629 | 88 | 271 | 0.0 | 0.0 | 0.00 | 0.00 | 0.00 | 79 | 994.6 |
| 20260906002528 | 88 | 271 | 0.0 | 0.0 | 0.00 | 0.00 | 0.00 | 78 | 994.7 |
| 20260906002428 | 88 | 271 | 0.0 | 0.0 | 0.00 | 0.00 | 0.00 | 77 | 994.7 |
| 20260906002328 | 88 | 271 | 0.0 | 0.0 | 0.00 | 0.00 | 0.00 | 77 | 994.7 |
| 20260906002158 | 89 | 271 | 0.0 | 0.0 | 0.00 | 0.00 | 0.00 | 77 | 994.7 |
| 20260906002059 | 89 | 271 | 0.0 | 0.0 | 0.00 | 0.00 | 0.00 | 76 | 994.8 |
| 20260906001958 | 89 | 271 | 0.0 | 0.0 | 0.00 | 0.00 | 0.00 | 74 | 994.7 |
| 20260906001859 | 89 | 271 | 0.0 | 0.0 | 0.00 | 0.00 | 0.00 | 71 | 994.6 |
| 20260906001758 | 89 | 271 | 0.0 | 0.0 | 0.00 | 0.00 | 0.00 | 71 | 994.5 |
| 20260906001658 | 89 | 271 | 0.0 | 0.0 | 0.00 | 0.00 | 0.00 | 72 | 994.6 |
| 20260906001529 | 90 | 271 | 0.0 | 0.0 | 0.00 | 0.00 | 0.00 | 71 | 994.5 |
| 20260906001428 | 90 | 271 | 0.0 | 0.0 | 0.00 | 0.00 | 0.00 | 70 | 994.7 |
| 20260906001259 | 90 | 271 | 0.0 | 0.0 | 0.00 | 0.00 | 0.00 | 69 | 994.6 |
| 20260906001158 | 90 | 271 | 0.0 | 0.0 | 0.00 | 0.00 | 0.00 | 71 | 994.5 |
| 20260906001058 | 90 | 271 | 0.0 | 0.0 | 0.00 | 0.00 | 0.00 | 68 | 994.5 |
| 20260906000958 | 90 | 271 | 0.0 | 0.0 | 0.00 | 0.00 | 0.00 | 69 | 994.7 |
| 20260906000829 | 91 | 271 | 0.0 | 0.0 | 0.00 | 0.00 | 0.00 | 69 | 994.6 |
| 20260906000728 | 91 | 271 | 0.0 | 0.0 | 0.00 | 0.00 | 0.00 | 64 | 994.4 |
| 20260906000628 | 91 | 271 | 0.0 | 0.0 | 0.00 | 0.00 | 0.00 | 66 | 994.5 |
| 20260906000459 | 91 | 271 | 0.0 | 0.9 | 0.00 | 0.00 | 0.00 | 63 | 994.7 |
| 20260906000329 | 91 | 271 | 0.0 | 0.0 | 0.00 | 0.00 | 0.00 | 65 | 994.7 |
| 20260906000228 | 91 | 271 | 0.0 | 0.9 | 0.00 | 0.00 | 0.00 | 65 | 994.8 |
| 20260906000128 | 91 | 271 | 0.0 | 0.0 | 0.00 | 0.00 | 0.00 | 65 | 994.5 |
| 20260905235959 | 91 | 271 | 0.0 | 0.0 | 0.00 | 0.00 | 0.00 | 65 | 994.7 |
| 20260905235858 | 90 | 271 | 0.0 | 0.0 | 0.00 | 0.00 | 0.00 | 65 | 994.7 |
| 20260905235758 | 90 | 271 | 0.0 | 0.9 | 0.00 | 0.00 | 0.00 | 64 | 994.7 |
| 20260905235658 | 90 | 271 | 0.0 | 0.0 | 0.00 | 0.00 | 0.00 | 66 | 994.8 |
| 20260905235558 | 90 | 271 | 0.0 | 0.0 | 0.00 | 0.00 | 0.00 | 66 | 994.9 |
| 20260905235458 | 90 | 271 | 0.0 | 0.0 | 0.00 | 0.00 | 0.00 | 67 | 994.7 |
| 20260905235329 | 90 | 271 | 0.0 | 0.0 | 0.00 | 0.00 | 0.00 | 68 | 994.8 |
| 20260905235228 | 90 | 271 | 0.0 | 0.0 | 0.00 | 0.00 | 0.00 | 68 | 994.9 |
| 20260905235128 | 90 | 271 | 0.0 | 0.0 | 0.00 | 0.00 | 0.00 | 72 | 994.9 |
| 20260905235028 | 90 | 271 | 0.0 | 0.0 | 0.00 | 0.00 | 0.00 | 74 | 995.0 |
| 20260905234858 | 91 | 271 | 0.0 | 0.0 | 0.00 | 0.00 | 0.00 | 73 | 994.9 |
| 20260905234758 | 91 | 271 | 0.0 | 0.0 | 0.00 | 0.00 | 0.00 | 72 | 994.9 |
| 20260905234629 | 91 | 271 | 0.0 | 0.0 | 0.00 | 0.00 | 0.00 | 70 | 994.9 |
| 20260905234529 | 91 | 271 | 0.0 | 0.0 | 0.00 | 0.00 | 0.00 | 64 | 995.1 |
| 20260905234359 | 91 | 271 | 0.0 | 0.0 | 0.00 | 0.00 | 0.00 | 64 | 994.8 |
| 20260905234229 | 91 | 271 | 0.0 | 0.0 | 0.00 | 0.00 | 0.00 | 63 | 994.8 |
| 20260905234128 | 91 | 271 | 0.0 | 0.0 | 0.00 | 0.00 | 0.00 | 63 | 994.9 |
| 20260905234028 | 91 | 271 | 0.0 | 0.0 | 0.00 | 0.00 | 0.00 | 64 | 994.8 |
| 20260905233928 | 91 | 271 | 0.0 | 0.0 | 0.00 | 0.00 | 0.00 | 64 | 994.9 |
| 20260905233759 | 91 | 271 | 0.0 | 0.0 | 0.00 | 0.00 | 0.00 | 63 | 994.8 |
| 20260905233658 | 91 | 271 | 0.0 | 0.0 | 0.00 | 0.00 | 0.00 | 64 | 994.9 |
| 20260905233558 | 91 | 271 | 0.0 | 0.0 | 0.00 | 0.00 | 0.00 | 63 | 994.8 |
| 20260905233458 | 91 | 271 | 0.0 | 0.0 | 0.00 | 0.00 | 0.00 | 63 | 994.8 |
| 20260905233329 | 91 | 271 | 0.0 | 0.0 | 0.00 | 0.00 | 0.00 | 63 | 994.8 |
| 20260905233228 | 91 | 271 | 0.0 | 0.0 | 0.00 | 0.00 | 0.00 | 63 | 994.9 |
| 20260905233128 | 91 | 271 | 0.0 | 0.0 | 0.00 | 0.00 | 0.00 | 64 | 994.8 |
| 20260905233028 | 91 | 271 | 0.0 | 0.0 | 0.00 | 0.00 | 0.00 | 63 | 994.9 |
| 20260905232859 | 91 | 271 | 0.0 | 0.0 | 0.00 | 0.00 | 0.00 | 63 | 994.6 |
| 20260905232758 | 91 | 271 | 0.0 | 0.0 | 0.00 | 0.00 | 0.00 | 62 | 994.8 |
| 20260905232658 | 92 | 271 | 0.0 | 0.0 | 0.00 | 0.00 | 0.00 | 62 | 994.9 |
| 20260905232558 | 92 | 271 | 0.0 | 0.0 | 0.00 | 0.00 | 0.00 | 62 | 994.8 |
| 20260905232429 | 92 | 271 | 0.0 | 0.0 | 0.00 | 0.00 | 0.00 | 61 | 994.7 |
| 20260905232328 | 92 | 271 | 0.0 | 0.0 | 0.00 | 0.00 | 0.00 | 60 | 994.8 |
| 20260905232228 | 92 | 271 | 0.0 | 0.0 | 0.00 | 0.00 | 0.00 | 60 | 994.8 |
| 20260905232128 | 92 | 271 | 0.0 | 0.0 | 0.00 | 0.00 | 0.00 | 60 | 994.7 |
| 20260905231959 | 92 | 271 | 0.0 | 0.0 | 0.00 | 0.00 | 0.00 | 60 | 994.7 |
| 20260905231829 | 92 | 271 | 0.0 | 0.0 | 0.00 | 0.00 | 0.00 | 60 | 994.7 |
| 20260905231659 | 92 | 271 | 0.0 | 0.0 | 0.00 | 0.00 | 0.00 | 60 | 994.8 |
| 20260905231559 | 92 | 271 | 0.0 | 0.0 | 0.00 | 0.00 | 0.00 | 60 | 994.6 |
| 20260905231459 | 92 | 271 | 0.0 | 0.0 | 0.00 | 0.00 | 0.00 | 61 | 994.7 |
| 20260905231328 | 92 | 271 | 0.0 | 0.0 | 0.00 | 0.00 | 0.00 | 61 | 994.7 |
| 20260905231159 | 93 | 271 | 0.0 | 0.0 | 0.00 | 0.00 | 0.00 | 62 | 994.8 |
| 20260905231029 | 93 | 271 | 0.0 | 0.0 | 0.00 | 0.00 | 0.00 | 65 | 994.6 |
| 20260905230859 | 93 | 271 | 0.0 | 0.0 | 0.00 | 0.00 | 0.00 | 63 | 994.7 |
| 20260905230729 | 94 | 271 | 0.0 | 0.0 | 0.00 | 0.00 | 0.00 | 62 | 994.7 |
| 20260905230628 | 94 | 271 | 0.0 | 0.0 | 0.00 | 0.00 | 0.00 | 58 | 994.5 |
| 20260905230528 | 94 | 271 | 0.0 | 0.0 | 0.00 | 0.00 | 0.00 | 57 | 994.7 |
| 20260905230428 | 94 | 271 | 0.0 | 0.0 | 0.00 | 0.00 | 0.00 | 57 | 994.7 |
| 20260905230328 | 94 | 271 | 0.0 | 0.0 | 0.00 | 0.00 | 0.00 | 57 | 994.6 |
| 20260905230159 | 94 | 271 | 0.0 | 0.0 | 0.00 | 0.00 | 0.00 | 57 | 994.9 |
| 20260905230028 | 94 | 271 | 0.0 | 0.0 | 0.00 | 0.00 | 0.00 | 56 | 994.8 |
| 20260905225928 | 94 | 271 | 0.0 | 0.0 | 0.00 | 0.00 | 0.00 | 57 | 994.8 |
| 20260905225759 | 95 | 271 | 0.0 | 0.0 | 0.00 | 0.00 | 0.00 | 57 | 994.6 |
| 20260905225628 | 95 | 271 | 0.0 | 0.0 | 0.00 | 0.00 | 0.00 | 55 | 994.6 |
| 20260905225459 | 95 | 271 | 0.0 | 0.0 | 0.00 | 0.00 | 0.00 | 55 | 994.6 |
| 20260905225358 | 95 | 271 | 0.0 | 0.0 | 0.00 | 0.00 | 0.00 | 55 | 994.7 |
| 20260905225258 | 95 | 271 | 0.0 | 0.0 | 0.00 | 0.00 | 0.00 | 54 | 994.7 |
| 20260905225129 | 95 | 271 | 0.0 | 0.0 | 0.00 | 0.00 | 0.00 | 55 | 994.7 |
| 20260905225028 | 96 | 271 | 0.0 | 0.9 | 0.00 | 0.00 | 0.00 | 54 | 994.5 |
| 20260905224859 | 96 | 271 | 0.0 | 0.0 | 0.00 | 0.00 | 0.00 | 56 | 994.8 |
| 20260905224728 | 96 | 271 | 0.0 | 0.0 | 0.00 | 0.00 | 0.00 | 54 | 994.7 |
| 20260905224628 | 96 | 270 | 0.0 | 0.0 | 0.00 | 0.00 | 0.00 | 55 | 994.9 |
| 20260905224529 | 97 | 270 | 0.0 | 0.0 | 0.00 | 0.00 | 0.00 | 54 | 994.8 |
| 20260905224358 | 97 | 271 | 0.9 | 1.7 | 0.00 | 0.00 | 0.00 | 54 | 994.5 |
| 20260905224228 | 97 | 270 | 0.0 | 0.0 | 0.00 | 0.00 | 0.00 | 52 | 994.7 |
| 20260905224128 | 97 | 270 | 0.0 | 0.0 | 0.00 | 0.00 | 0.00 | 51 | 994.5 |
| 20260905224029 | 97 | 270 | 0.0 | 0.9 | 0.00 | 0.00 | 0.00 | 50 | 994.8 |
| 20260905223859 | 97 | 270 | 0.0 | 0.0 | 0.00 | 0.00 | 0.00 | 54 | 994.6 |
| 20260905223758 | 97 | 270 | 0.0 | 0.0 | 0.00 | 0.00 | 0.00 | 52 | 994.8 |
| 20260905223658 | 97 | 270 | 0.0 | 0.0 | 0.00 | 0.00 | 0.00 | 54 | 994.7 |
| 20260905223600 | 97 | 270 | 0.0 | 0.0 | 0.00 | 0.00 | 0.00 | 53 | 994.5 |
| 20260905223458 | 97 | 270 | 0.0 | 0.0 | 0.00 | 0.00 | 0.00 | 52 | 994.5 |
| 20260905223329 | 97 | 270 | 0.0 | 0.9 | 0.00 | 0.00 | 0.00 | 53 | 994.5 |
| 20260905223228 | 97 | 270 | 0.9 | 2.6 | 0.00 | 0.00 | 0.00 | 54 | 994.5 |
| 20260905223059 | 98 | 271 | 0.9 | 1.7 | 0.00 | 0.00 | 0.00 | 52 | 994.7 |
| 20260905222958 | 98 | 270 | 2.6 | 2.6 | 0.00 | 0.00 | 0.00 | 50 | 994.8 |
| 20260905222858 | 98 | 270 | 1.7 | 2.6 | 0.00 | 0.00 | 0.00 | 51 | 994.6 |
| 20260905222729 | 98 | 270 | 0.0 | 0.0 | 0.00 | 0.00 | 0.00 | 51 | 994.6 |
| 20260905222559 | 98 | 270 | 0.0 | 0.9 | 0.00 | 0.00 | 0.00 | 49 | 994.7 |
| 20260905222459 | 98 | 270 | 0.0 | 0.0 | 0.00 | 0.00 | 0.00 | 50 | 994.6 |
| 20260905222328 | 98 | 270 | 0.0 | 0.0 | 0.00 | 0.00 | 0.00 | 51 | 994.7 |
| 20260905222201 | 98 | 270 | 0.0 | 0.9 | 0.00 | 0.00 | 0.00 | 53 | 994.7 |
| 20260905222029 | 98 | 270 | 0.9 | 2.6 | 0.00 | 0.00 | 0.00 | 52 | 994.7 |
| 20260905221900 | 98 | 270 | 0.9 | 1.7 | 0.00 | 0.00 | 0.00 | 50 | 994.9 |
| 20260905221730 | 98 | 270 | 0.9 | 2.6 | 0.00 | 0.00 | 0.00 | 49 | 994.9 |
| 20260905221628 | 98 | 270 | 1.7 | 2.6 | 0.00 | 0.00 | 0.00 | 50 | 994.7 |
| 20260905221528 | 98 | 270 | 0.9 | 1.7 | 0.00 | 0.00 | 0.00 | 48 | 995.0 |
| 20260905221428 | 98 | 270 | 1.7 | 2.6 | 0.00 | 0.00 | 0.00 | 48 | 994.8 |
| 20260905221329 | 98 | 270 | 0.0 | 0.9 | 0.00 | 0.00 | 0.00 | 49 | 994.9 |
| 20260905221228 | 98 | 270 | 1.7 | 3.5 | 0.00 | 0.00 | 0.00 | 48 | 994.8 |
| 20260905221128 | 98 | 270 | 0.0 | 1.7 | 0.00 | 0.00 | 0.00 | 49 | 994.7 |
| 20260905220958 | 98 | 270 | 1.7 | 1.7 | 0.00 | 0.00 | 0.00 | 50 | 994.7 |
| 20260905220829 | 98 | 270 | 0.9 | 1.7 | 0.00 | 0.00 | 0.00 | 50 | 994.9 |
| 20260905220700 | 98 | 269 | 2.6 | 3.5 | 0.00 | 0.00 | 0.00 | 49 | 994.8 |
| 20260905220529 | 98 | 269 | 0.0 | 0.9 | 0.00 | 0.00 | 0.00 | 52 | 995.0 |
| 20260905220428 | 98 | 269 | 1.7 | 2.6 | 0.00 | 0.00 | 0.00 | 50 | 994.9 |
| 20260905220303 | 98 | 270 | 1.7 | 2.6 | 0.00 | 0.00 | 0.00 | 51 | 995.0 |
| 20260905220129 | 98 | 266 | 1.7 | 2.6 | 0.00 | 0.00 | 0.00 | 49 | 994.8 |
| 20260905220028 | 98 | 265 | 0.9 | 1.7 | 0.00 | 0.00 | 0.00 | 51 | 994.8 |
| 20260905215859 | 97 | 261 | 0.9 | 1.7 | 0.00 | 0.00 | 0.00 | 51 | 994.8 |
| 20260905215758 | 97 | 269 | 0.0 | 0.9 | 0.00 | 0.00 | 0.00 | 52 | 994.7 |
| 20260905215629 | 97 | 269 | 1.7 | 1.7 | 0.00 | 0.00 | 0.00 | 51 | 994.9 |
| 20260905215500 | 97 | 270 | 0.9 | 1.7 | 0.00 | 0.00 | 0.00 | 50 | 994.9 |
| 20260905215358 | 97 | 267 | 2.6 | 2.6 | 0.00 | 0.00 | 0.00 | 51 | 995.0 |
| 20260905215229 | 97 | 267 | 1.7 | 2.6 | 0.00 | 0.00 | 0.00 | 52 | 994.8 |
| 20260905215102 | 97 | 270 | 1.7 | 2.6 | 0.00 | 0.00 | 0.00 | 50 | 994.9 |
| 20260905214958 | 97 | 267 | 1.7 | 1.7 | 0.00 | 0.00 | 0.00 | 51 | 994.8 |
| 20260905214829 | 97 | 271 | 1.7 | 2.6 | 0.00 | 0.00 | 0.00 | 54 | 995.0 |
| 20260905214728 | 98 | 271 | 1.7 | 2.6 | 0.00 | 0.00 | 0.00 | 50 | 994.8 |
| 20260905214559 | 98 | 268 | 0.9 | 1.7 | 0.00 | 0.00 | 0.00 | 52 | 994.9 |
| 20260905214458 | 98 | 268 | 0.0 | 0.0 | 0.00 | 0.00 | 0.00 | 49 | 994.8 |
| 20260905214358 | 98 | 268 | 0.0 | 0.0 | 0.00 | 0.00 | 0.00 | 50 | 994.9 |
| 20260905214258 | 98 | 268 | 0.0 | 0.0 | 0.00 | 0.00 | 0.00 | 54 | 995.0 |
| 20260905214159 | 98 | 268 | 0.0 | 0.0 | 0.00 | 0.00 | 0.00 | 54 | 995.1 |
| 20260905214028 | 98 | 268 | 0.0 | 0.9 | 0.00 | 0.00 | 0.00 | 49 | 994.8 |
| 20260905213928 | 98 | 268 | 0.9 | 1.7 | 0.00 | 0.00 | 0.00 | 49 | 995.0 |
| 20260905213829 | 98 | 267 | 0.9 | 2.6 | 0.00 | 0.00 | 0.00 | 50 | 994.9 |
| 20260905213659 | 98 | 269 | 0.0 | 0.0 | 0.00 | 0.00 | 0.00 | 51 | 995.1 |
| 20260905213558 | 98 | 269 | 0.9 | 1.7 | 0.00 | 0.00 | 0.00 | 49 | 995.0 |
| 20260905213458 | 98 | 269 | 1.7 | 2.6 | 0.00 | 0.00 | 0.00 | 52 | 994.9 |
| 20260905213358 | 98 | 267 | 1.7 | 1.7 | 0.00 | 0.00 | 0.00 | 51 | 994.8 |
| 20260905213258 | 98 | 270 | 2.6 | 3.5 | 0.00 | 0.00 | 0.00 | 50 | 995.0 |
| 20260905213158 | 98 | 266 | 1.7 | 1.7 | 0.00 | 0.00 | 0.00 | 51 | 995.1 |
| 20260905213058 | 98 | 267 | 1.7 | 2.6 | 0.00 | 0.00 | 0.00 | 53 | 994.9 |
| 20260905212958 | 98 | 265 | 1.7 | 2.6 | 0.00 | 0.00 | 0.00 | 51 | 994.9 |
| 20260905212858 | 98 | 264 | 0.9 | 1.7 | 0.00 | 0.00 | 0.00 | 50 | 995.0 |
| 20260905212729 | 98 | 266 | 1.7 | 2.6 | 0.00 | 0.00 | 0.00 | 53 | 994.9 |
| 20260905212559 | 98 | 264 | 0.9 | 0.9 | 0.00 | 0.00 | 0.00 | 50 | 994.9 |
| 20260905212458 | 98 | 265 | 1.7 | 1.7 | 0.00 | 0.00 | 0.00 | 50 | 995.1 |
| 20260905212329 | 100 | 279 | 3.5 | 4.3 | 0.00 | 0.00 | 0.00 | 51 | 994.9 |
| 20260905212158 | 100 | 261 | 2.6 | 3.5 | 0.00 | 0.00 | 0.00 | 48 | 995.1 |
| 20260905212058 | 100 | 261 | 0.0 | 0.9 | 0.00 | 0.00 | 0.00 | 50 | 994.8 |
| 20260905211929 | 100 | 261 | 0.9 | 0.9 | 0.00 | 0.00 | 0.00 | 49 | 995.1 |
| 20260905211828 | 100 | 260 | 0.9 | 1.7 | 0.00 | 0.00 | 0.00 | 48 | 995.1 |
| 20260905211659 | 100 | 260 | 0.0 | 0.9 | 0.00 | 0.00 | 0.00 | 49 | 994.9 |
| 20260905211558 | 100 | 260 | 0.0 | 0.9 | 0.00 | 0.00 | 0.00 | 48 | 995.1 |
| 20260905211430 | 99 | 259 | 0.0 | 0.9 | 0.00 | 0.00 | 0.00 | 49 | 995.1 |
| 20260905211328 | 99 | 260 | 0.0 | 0.9 | 0.00 | 0.00 | 0.00 | 49 | 995.0 |
| 20260905211228 | 98 | 260 | 0.0 | 0.0 | 0.00 | 0.00 | 0.00 | 51 | 995.0 |
| 20260905211128 | 98 | 261 | 0.0 | 0.9 | 0.00 | 0.00 | 0.00 | 54 | 995.0 |
| 20260905210959 | 98 | 255 | 0.0 | 0.9 | 0.00 | 0.00 | 0.00 | 52 | 994.9 |
| 20260905210858 | 98 | 268 | 0.9 | 0.9 | 0.00 | 0.00 | 0.00 | 53 | 995.2 |
| 20260905210758 | 98 | 267 | 1.7 | 2.6 | 0.00 | 0.00 | 0.00 | 52 | 994.8 |
| 20260905210658 | 98 | 273 | 1.7 | 1.7 | 0.00 | 0.00 | 0.00 | 51 | 995.1 |
| 20260905210529 | 98 | 275 | 3.5 | 3.5 | 0.00 | 0.00 | 0.00 | 51 | 995.0 |
| 20260905210358 | 98 | 270 | 1.7 | 1.7 | 0.00 | 0.00 | 0.00 | 51 | 994.9 |
| 20260905210258 | 98 | 271 | 0.9 | 1.7 | 0.00 | 0.00 | 0.00 | 51 | 995.2 |
| 20260905210128 | 98 | 271 | 0.0 | 0.0 | 0.00 | 0.00 | 0.00 | 51 | 995.1 |
| 20260905210028 | 99 | 271 | 0.9 | 1.7 | 0.00 | 0.00 | 0.00 | 51 | 994.9 |
| 20260905205928 | 99 | 271 | 1.7 | 1.7 | 0.00 | 0.00 | 0.00 | 51 | 995.1 |
| 20260905205758 | 99 | 268 | 0.0 | 0.9 | 0.00 | 0.00 | 0.00 | 49 | 995.3 |
| 20260905205658 | 99 | 268 | 0.0 | 0.9 | 0.00 | 0.00 | 0.00 | 49 | 995.0 |
| 20260905205528 | 98 | 269 | 0.0 | 0.0 | 0.00 | 0.00 | 0.00 | 53 | 995.0 |
| 20260905205428 | 98 | 269 | 0.0 | 0.9 | 0.00 | 0.00 | 0.00 | 51 | 995.0 |
| 20260905205328 | 98 | 269 | 0.9 | 1.7 | 0.00 | 0.00 | 0.00 | 51 | 995.0 |
| 20260905205228 | 98 | 269 | 1.7 | 2.6 | 0.00 | 0.00 | 0.00 | 51 | 995.1 |
| 20260905205128 | 98 | 268 | 0.9 | 1.7 | 0.00 | 0.00 | 0.00 | 51 | 995.2 |
| 20260905204958 | 98 | 264 | 0.0 | 1.7 | 0.00 | 0.00 | 0.00 | 52 | 995.2 |
| 20260905204858 | 98 | 265 | 1.7 | 2.6 | 0.00 | 0.00 | 0.00 | 50 | 995.0 |
| 20260905204758 | 98 | 258 | 0.9 | 1.7 | 0.00 | 0.00 | 0.00 | 50 | 995.4 |
| 20260905204658 | 98 | 267 | 2.6 | 2.6 | 0.00 | 0.00 | 0.00 | 51 | 995.0 |
| 20260905204558 | 98 | 269 | 2.6 | 3.5 | 0.00 | 0.00 | 0.00 | 52 | 995.3 |
| 20260905204429 | 98 | 263 | 1.7 | 2.6 | 0.00 | 0.00 | 0.00 | 50 | 995.1 |
| 20260905204329 | 99 | 268 | 2.6 | 2.6 | 0.00 | 0.00 | 0.00 | 49 | 995.2 |
| 20260905204228 | 99 | 272 | 3.5 | 4.3 | 0.00 | 0.00 | 0.00 | 49 | 995.2 |
| 20260905204128 | 99 | 259 | 0.0 | 0.0 | 0.00 | 0.00 | 0.00 | 51 | 995.2 |
| 20260905203959 | 99 | 259 | 0.0 | 0.0 | 0.00 | 0.00 | 0.00 | 53 | 995.3 |
| 20260905203829 | 98 | 268 | 0.0 | 0.9 | 0.00 | 0.00 | 0.00 | 49 | 995.3 |
| 20260905203728 | 97 | 268 | 0.0 | 0.0 | 0.00 | 0.00 | 0.00 | 50 | 995.2 |
| 20260905203628 | 97 | 268 | 0.0 | 0.9 | 0.00 | 0.00 | 0.00 | 50 | 995.2 |
| 20260905203459 | 97 | 268 | 0.0 | 0.0 | 0.00 | 0.00 | 0.00 | 50 | 995.3 |
| 20260905203328 | 97 | 268 | 1.7 | 1.7 | 0.00 | 0.00 | 0.00 | 50 | 995.4 |
| 20260905203228 | 97 | 269 | 2.6 | 2.6 | 0.00 | 0.00 | 0.00 | 51 | 995.3 |
| 20260905203058 | 97 | 266 | 1.7 | 2.6 | 0.00 | 0.00 | 0.00 | 52 | 995.4 |
| 20260905202929 | 97 | 270 | 1.7 | 2.6 | 0.00 | 0.00 | 0.00 | 52 | 995.3 |
| 20260905202759 | 97 | 270 | 3.5 | 4.3 | 0.00 | 0.00 | 0.00 | 50 | 995.3 |
| 20260905202658 | 97 | 266 | 1.7 | 2.6 | 0.00 | 0.00 | 0.00 | 51 | 995.3 |
| 20260905202558 | 97 | 268 | 0.9 | 2.6 | 0.00 | 0.00 | 0.00 | 53 | 995.5 |
| 20260905202429 | 97 | 267 | 0.9 | 1.7 | 0.00 | 0.00 | 0.00 | 53 | 995.3 |
| 20260905202300 | 97 | 264 | 0.0 | 1.7 | 0.00 | 0.00 | 0.00 | 51 | 995.2 |
| 20260905202158 | 97 | 264 | 0.0 | 0.9 | 0.00 | 0.00 | 0.00 | 50 | 995.5 |
| 20260905202058 | 97 | 269 | 2.6 | 2.6 | 0.00 | 0.00 | 0.00 | 50 | 995.6 |
| 20260905201958 | 97 | 273 | 2.6 | 3.5 | 0.00 | 0.00 | 0.00 | 50 | 995.4 |
| 20260905201858 | 97 | 267 | 2.6 | 3.5 | 0.00 | 0.00 | 0.00 | 50 | 995.5 |
| 20260905201758 | 97 | 270 | 2.6 | 4.3 | 0.00 | 0.00 | 0.00 | 51 | 995.5 |
| 20260905201658 | 97 | 276 | 4.3 | 5.2 | 0.00 | 0.00 | 0.00 | 51 | 995.4 |
| 20260905201529 | 98 | 264 | 1.7 | 1.7 | 0.00 | 0.00 | 0.00 | 51 | 995.6 |
| 20260905201359 | 97 | 269 | 3.5 | 4.3 | 0.00 | 0.00 | 0.00 | 51 | 995.5 |
| 20260905201258 | 97 | 252 | 1.7 | 2.6 | 0.00 | 0.00 | 0.00 | 50 | 995.6 |
| 20260905201129 | 98 | 265 | 0.0 | 0.9 | 0.00 | 0.00 | 0.00 | 53 | 995.6 |
| 20260905200959 | 98 | 268 | 1.7 | 2.6 | 0.00 | 0.00 | 0.00 | 52 | 995.6 |
| 20260905200828 | 98 | 270 | 1.7 | 2.6 | 0.00 | 0.00 | 0.00 | 54 | 995.4 |
| 20260905200700 | 99 | 276 | 4.3 | 4.3 | 0.00 | 0.00 | 0.00 | 50 | 995.7 |
| 20260905200558 | 99 | 270 | 3.5 | 4.3 | 0.00 | 0.00 | 0.00 | 49 | 995.6 |
| 20260905200458 | 99 | 261 | 2.6 | 5.2 | 0.00 | 0.00 | 0.00 | 49 | 995.6 |
| 20260905200329 | 99 | 250 | 2.6 | 3.5 | 0.00 | 0.00 | 0.00 | 48 | 995.6 |
| 20260905200159 | 99 | 242 | 0.0 | 1.7 | 0.00 | 0.00 | 0.00 | 52 | 995.7 |
| 20260905200058 | 99 | 253 | 0.0 | 0.0 | 0.00 | 0.00 | 0.00 | 54 | 995.7 |
| 20260905195928 | 99 | 245 | 0.9 | 2.6 | 0.00 | 0.00 | 0.00 | 49 | 995.8 |
| 20260905195828 | 99 | 245 | 1.7 | 2.6 | 0.00 | 0.00 | 0.00 | 50 | 995.8 |
| 20260905195728 | 99 | 248 | 0.9 | 2.6 | 0.00 | 0.00 | 0.00 | 51 | 995.9 |
| 20260905195559 | 98 | 255 | 0.9 | 1.7 | 0.00 | 0.00 | 0.00 | 53 | 995.7 |
| 20260905195458 | 98 | 252 | 0.0 | 1.7 | 0.00 | 0.00 | 0.00 | 53 | 995.9 |
| 20260905195329 | 98 | 269 | 4.3 | 5.2 | 0.00 | 0.00 | 0.00 | 53 | 996.1 |
| 20260905195230 | 98 | 270 | 3.5 | 3.5 | 0.00 | 0.00 | 0.00 | 52 | 996.0 |
| 20260905195128 | 98 | 258 | 1.7 | 2.6 | 0.00 | 0.00 | 0.00 | 54 | 995.9 |
| 20260905195028 | 98 | 269 | 3.5 | 3.5 | 0.00 | 0.00 | 0.00 | 51 | 996.1 |
| 20260905194859 | 97 | 268 | 0.0 | 0.9 | 0.00 | 0.00 | 0.00 | 52 | 996.0 |
| 20260905194758 | 97 | 268 | 1.7 | 2.6 | 0.00 | 0.00 | 0.00 | 52 | 996.0 |
| 20260905194658 | 97 | 265 | 1.7 | 2.6 | 0.00 | 0.00 | 0.00 | 51 | 996.0 |
| 20260905194558 | 97 | 264 | 0.9 | 1.7 | 0.00 | 0.00 | 0.00 | 51 | 996.0 |
| 20260905194458 | 98 | 268 | 1.7 | 1.7 | 0.00 | 0.00 | 0.00 | 52 | 996.3 |
| 20260905194358 | 99 | 281 | 4.3 | 7.0 | 0.00 | 0.00 | 0.00 | 50 | 996.4 |
| 20260905194258 | 99 | 270 | 0.9 | 1.7 | 0.00 | 0.00 | 0.00 | 49 | 996.1 |
| 20260905194128 | 99 | 269 | 0.0 | 0.0 | 0.00 | 0.00 | 0.00 | 49 | 996.2 |
| 20260905194028 | 99 | 269 | 0.0 | 0.0 | 0.00 | 0.00 | 0.00 | 49 | 996.1 |
| 20260905193858 | 98 | 269 | 0.0 | 0.0 | 0.00 | 0.00 | 0.00 | 50 | 996.3 |
| 20260905193758 | 98 | 269 | 0.9 | 1.7 | 0.00 | 0.00 | 0.00 | 55 | 996.2 |
| 20260905193658 | 98 | 269 | 0.0 | 0.9 | 0.00 | 0.00 | 0.00 | 52 | 996.2 |
| 20260905193529 | 97 | 269 | 0.0 | 0.9 | 0.00 | 0.00 | 0.00 | 51 | 996.2 |
| 20260905193428 | 97 | 270 | 0.0 | 0.0 | 0.00 | 0.00 | 0.00 | 52 | 996.2 |
| 20260905193328 | 97 | 270 | 0.0 | 0.9 | 0.00 | 0.00 | 0.00 | 50 | 996.4 |
| 20260905193159 | 97 | 271 | 2.6 | 3.5 | 0.00 | 0.00 | 0.00 | 50 | 996.4 |
| 20260905193028 | 97 | 269 | 1.7 | 2.6 | 0.00 | 0.00 | 0.00 | 50 | 996.4 |
| 20260905192928 | 98 | 265 | 2.6 | 3.5 | 0.00 | 0.00 | 0.00 | 49 | 996.3 |
| 20260905192828 | 98 | 267 | 0.9 | 1.7 | 0.00 | 0.00 | 0.00 | 49 | 996.3 |
| 20260905192659 | 98 | 263 | 0.9 | 1.7 | 0.00 | 0.00 | 0.00 | 50 | 996.3 |
| 20260905192558 | 98 | 259 | 0.0 | 0.9 | 0.00 | 0.00 | 0.00 | 51 | 996.3 |
| 20260905192429 | 98 | 272 | 3.5 | 4.3 | 0.00 | 0.00 | 0.00 | 50 | 996.5 |
| 20260905192328 | 98 | 267 | 1.7 | 2.6 | 0.00 | 0.00 | 0.00 | 49 | 996.5 |
| 20260905192159 | 99 | 273 | 4.3 | 4.3 | 0.00 | 0.00 | 0.00 | 48 | 996.2 |
| 20260905192058 | 100 | 259 | 0.9 | 0.9 | 0.00 | 0.00 | 0.00 | 53 | 996.6 |
| 20260905191958 | 100 | 258 | 0.0 | 0.9 | 0.00 | 0.00 | 0.00 | 54 | 996.6 |
| 20260905191858 | 99 | 252 | 0.0 | 0.0 | 0.00 | 0.00 | 0.00 | 52 | 996.5 |
| 20260905191729 | 99 | 252 | 0.0 | 0.9 | 0.00 | 0.00 | 0.00 | 50 | 996.5 |
| 20260905191628 | 99 | 252 | 0.0 | 0.9 | 0.00 | 0.00 | 0.00 | 49 | 996.3 |
| 20260905191529 | 99 | 252 | 0.0 | 0.0 | 0.00 | 0.00 | 0.00 | 52 | 996.6 |
| 20260905191428 | 98 | 252 | 0.0 | 0.0 | 0.00 | 0.00 | 0.00 | 51 | 996.4 |
| 20260905191328 | 98 | 252 | 0.0 | 0.0 | 0.00 | 0.00 | 0.00 | 50 | 996.5 |
| 20260905191228 | 98 | 250 | 1.7 | 2.6 | 0.00 | 0.00 | 0.00 | 50 | 996.7 |
| 20260905191059 | 99 | 270 | 3.5 | 4.3 | 0.00 | 0.00 | 0.00 | 51 | 996.7 |
| 20260905190958 | 99 | 250 | 0.0 | 0.0 | 0.00 | 0.00 | 0.00 | 52 | 996.7 |
| 20260905190829 | 98 | 250 | 0.0 | 0.0 | 0.00 | 0.00 | 0.00 | 56 | 996.5 |
| 20260905190728 | 98 | 250 | 0.0 | 0.0 | 0.00 | 0.00 | 0.00 | 53 | 996.5 |
| 20260905190628 | 98 | 250 | 0.0 | 0.9 | 0.00 | 0.00 | 0.00 | 53 | 996.7 |
| 20260905190528 | 97 | 254 | 0.0 | 0.9 | 0.00 | 0.00 | 0.00 | 53 | 996.7 |
| 20260905190428 | 97 | 254 | 0.9 | 1.7 | 0.00 | 0.00 | 0.00 | 55 | 996.9 |
| 20260905190259 | 97 | 259 | 0.0 | 0.0 | 0.00 | 0.00 | 0.00 | 53 | 996.6 |
| 20260905190158 | 97 | 259 | 0.0 | 0.0 | 0.00 | 0.00 | 0.00 | 54 | 996.7 |
| 20260905190058 | 96 | 259 | 0.0 | 0.0 | 0.00 | 0.00 | 0.00 | 53 | 996.7 |
| 20260905185929 | 96 | 259 | 0.0 | 0.0 | 0.00 | 0.00 | 0.00 | 53 | 996.8 |
| 20260905185828 | 96 | 259 | 0.0 | 0.0 | 0.00 | 0.00 | 0.00 | 54 | 996.6 |
| 20260905185728 | 96 | 260 | 0.9 | 1.7 | 0.00 | 0.00 | 0.00 | 54 | 997.0 |
| 20260905185628 | 97 | 260 | 1.7 | 1.7 | 0.00 | 0.00 | 0.00 | 55 | 996.8 |
| 20260905185459 | 97 | 258 | 1.7 | 2.6 | 0.00 | 0.00 | 0.00 | 53 | 996.7 |
| 20260905185358 | 96 | 242 | 0.0 | 0.9 | 0.00 | 0.00 | 0.00 | 54 | 996.9 |
| 20260905185258 | 96 | 242 | 0.9 | 1.7 | 0.00 | 0.00 | 0.00 | 54 | 996.8 |
| 20260905185158 | 96 | 242 | 0.0 | 0.0 | 0.00 | 0.00 | 0.00 | 55 | 997.0 |
| 20260905185029 | 96 | 243 | 0.0 | 0.9 | 0.00 | 0.00 | 0.00 | 55 | 996.7 |
| 20260905184928 | 96 | 242 | 1.7 | 2.6 | 0.00 | 0.00 | 0.00 | 54 | 996.9 |
| 20260905184828 | 96 | 243 | 1.7 | 2.6 | 0.00 | 0.00 | 0.00 | 54 | 997.0 |
| 20260905184728 | 96 | 243 | 0.0 | 0.9 | 0.00 | 0.00 | 0.00 | 56 | 996.5 |
| 20260905184559 | 96 | 243 | 0.0 | 0.9 | 0.00 | 0.00 | 0.00 | 54 | 996.7 |
| 20260905184458 | 96 | 243 | 0.0 | 0.0 | 0.00 | 0.00 | 0.00 | 56 | 996.7 |
| 20260905184358 | 96 | 243 | 2.6 | 2.6 | 0.00 | 0.00 | 0.00 | 55 | 996.8 |
| 20260905184258 | 96 | 250 | 0.9 | 1.7 | 0.00 | 0.00 | 0.00 | 57 | 996.7 |
| 20260905184158 | 95 | 250 | 0.9 | 1.7 | 0.00 | 0.00 | 0.00 | 56 | 996.8 |
| 20260905184058 | 95 | 255 | 0.0 | 0.0 | 0.00 | 0.00 | 0.00 | 58 | 996.8 |
| 20260905183928 | 96 | 267 | 3.5 | 3.5 | 0.00 | 0.00 | 0.00 | 55 | 996.8 |
| 20260905183828 | 95 | 261 | 0.0 | 0.0 | 0.00 | 0.00 | 0.00 | 58 | 996.9 |
| 20260905183659 | 95 | 261 | 0.0 | 0.9 | 0.00 | 0.00 | 0.00 | 59 | 996.9 |
| 20260905183558 | 95 | 261 | 0.9 | 0.9 | 0.00 | 0.00 | 0.00 | 56 | 996.8 |
| 20260905183458 | 95 | 270 | 1.7 | 2.6 | 0.00 | 0.00 | 0.00 | 57 | 997.1 |
| 20260905183358 | 95 | 275 | 3.5 | 4.3 | 0.00 | 0.00 | 0.00 | 56 | 996.9 |
| 20260905183258 | 95 | 267 | 2.6 | 2.6 | 0.00 | 0.00 | 0.00 | 56 | 996.9 |
| 20260905183129 | 96 | 263 | 0.0 | 0.0 | 0.00 | 0.00 | 0.00 | 56 | 996.9 |
| 20260905183028 | 95 | 263 | 0.0 | 0.0 | 0.00 | 0.00 | 0.00 | 56 | 997.0 |
| 20260905182928 | 95 | 263 | 0.0 | 0.0 | 0.00 | 0.00 | 0.00 | 58 | 997.2 |
| 20260905182759 | 95 | 263 | 0.0 | 0.0 | 0.00 | 0.00 | 0.00 | 56 | 997.0 |
| 20260905182658 | 95 | 263 | 0.9 | 1.7 | 0.00 | 0.00 | 0.00 | 57 | 997.0 |
| 20260905182528 | 95 | 265 | 0.9 | 1.7 | 0.00 | 0.00 | 0.00 | 56 | 997.0 |
| 20260905182428 | 95 | 263 | 0.0 | 0.0 | 0.00 | 0.00 | 0.00 | 58 | 997.2 |
| 20260905182258 | 95 | 265 | 1.7 | 2.6 | 0.00 | 0.00 | 0.00 | 57 | 997.1 |
| 20260905182158 | 95 | 269 | 3.5 | 4.3 | 0.00 | 0.00 | 0.00 | 57 | 997.1 |
| 20260905182029 | 96 | 261 | 0.9 | 1.7 | 0.00 | 0.00 | 0.00 | 57 | 997.2 |
| 20260905181859 | 96 | 287 | 5.2 | 5.2 | 0.00 | 0.00 | 0.00 | 55 | 997.0 |
| 20260905181758 | 96 | 267 | 1.7 | 2.6 | 0.00 | 0.00 | 0.00 | 60 | 997.2 |
| 20260905181658 | 96 | 278 | 2.6 | 2.6 | 0.00 | 0.00 | 0.00 | 56 | 997.3 |
| 20260905181558 | 96 | 274 | 1.7 | 3.5 | 0.00 | 0.00 | 0.00 | 59 | 997.0 |
| 20260905181429 | 96 | 266 | 0.9 | 1.7 | 0.00 | 0.00 | 0.00 | 56 | 997.3 |
| 20260905181258 | 96 | 282 | 4.3 | 5.2 | 0.00 | 0.00 | 0.00 | 56 | 997.2 |
| 20260905181158 | 95 | 269 | 2.6 | 3.5 | 0.00 | 0.00 | 0.00 | 57 | 997.4 |
| 20260905181058 | 95 | 273 | 1.7 | 3.5 | 0.00 | 0.00 | 0.00 | 57 | 997.2 |
| 20260905180928 | 96 | 287 | 5.2 | 7.0 | 0.00 | 0.00 | 0.00 | 56 | 997.2 |
| 20260905180828 | 96 | 262 | 3.5 | 4.3 | 0.00 | 0.00 | 0.00 | 56 | 997.3 |
| 20260905180728 | 97 | 267 | 0.9 | 1.7 | 0.00 | 0.00 | 0.00 | 54 | 997.4 |
| 20260905180559 | 97 | 263 | 1.7 | 2.6 | 0.00 | 0.00 | 0.00 | 54 | 997.2 |
| 20260905180429 | 96 | 256 | 0.0 | 0.9 | 0.00 | 0.00 | 0.00 | 55 | 997.3 |
| 20260905180328 | 96 | 257 | 0.0 | 0.0 | 0.00 | 0.00 | 0.00 | 55 | 997.1 |
| 20260905180228 | 95 | 258 | 0.0 | 0.9 | 0.00 | 0.00 | 0.00 | 57 | 997.4 |
| 20260905180100 | 95 | 263 | 1.7 | 1.7 | 0.00 | 0.00 | 0.00 | 55 | 997.5 |
| 20260905175929 | 96 | 259 | 1.7 | 1.7 | 0.00 | 0.00 | 0.00 | 55 | 997.3 |
| 20260905175758 | 95 | 255 | 0.0 | 0.0 | 0.00 | 0.00 | 0.00 | 57 | 997.6 |
| 20260905175629 | 95 | 263 | 0.9 | 1.7 | 0.00 | 0.00 | 0.00 | 54 | 997.5 |
| 20260905175529 | 95 | 263 | 0.9 | 1.7 | 0.00 | 0.00 | 0.00 | 58 | 997.5 |
| 20260905175428 | 95 | 259 | 0.0 | 1.7 | 0.00 | 0.00 | 0.00 | 56 | 997.3 |
| 20260905175328 | 95 | 271 | 1.7 | 3.5 | 0.00 | 0.00 | 0.00 | 56 | 997.5 |
| 20260905175158 | 95 | 262 | 3.5 | 4.3 | 0.00 | 0.00 | 0.00 | 55 | 997.4 |
| 20260905175058 | 95 | 267 | 6.1 | 7.8 | 0.00 | 0.00 | 0.00 | 55 | 997.5 |
| 20260905174958 | 95 | 262 | 3.5 | 4.3 | 0.00 | 0.00 | 0.00 | 56 | 997.3 |
| 20260905174829 | 95 | 253 | 1.7 | 2.6 | 0.00 | 0.00 | 0.00 | 56 | 997.5 |
| 20260905174729 | 95 | 261 | 3.5 | 3.5 | 0.00 | 0.00 | 0.00 | 55 | 997.7 |
| 20260905174558 | 95 | 253 | 0.9 | 1.7 | 0.00 | 0.00 | 0.00 | 56 | 997.6 |
| 20260905174458 | 95 | 253 | 1.7 | 2.6 | 0.00 | 0.00 | 0.00 | 54 | 997.5 |
| 20260905174329 | 95 | 253 | 0.9 | 2.6 | 0.00 | 0.00 | 0.00 | 56 | 997.4 |
| 20260905174228 | 95 | 252 | 0.9 | 1.7 | 0.00 | 0.00 | 0.00 | 55 | 997.5 |
| 20260905174128 | 95 | 255 | 3.5 | 5.2 | 0.00 | 0.00 | 0.00 | 54 | 997.5 |
| 20260905174028 | 95 | 256 | 1.7 | 3.5 | 0.00 | 0.00 | 0.00 | 56 | 997.4 |
| 20260905173928 | 95 | 261 | 4.3 | 4.3 | 0.00 | 0.00 | 0.00 | 53 | 997.3 |
| 20260905173759 | 95 | 253 | 1.7 | 2.6 | 0.00 | 0.00 | 0.00 | 54 | 997.5 |
| 20260905173658 | 95 | 254 | 1.7 | 1.7 | 0.00 | 0.00 | 0.00 | 55 | 997.6 |
| 20260905173558 | 95 | 265 | 2.6 | 4.3 | 0.00 | 0.00 | 0.00 | 56 | 997.4 |
| 20260905173429 | 95 | 251 | 0.0 | 1.7 | 0.00 | 0.00 | 0.00 | 55 | 997.5 |
| 20260905173259 | 95 | 258 | 2.6 | 3.5 | 0.00 | 0.00 | 0.00 | 55 | 997.4 |
| 20260905173158 | 95 | 257 | 2.6 | 3.5 | 0.00 | 0.00 | 0.00 | 54 | 997.5 |
| 20260905173028 | 95 | 257 | 1.7 | 2.6 | 0.00 | 0.00 | 0.00 | 58 | 997.5 |
| 20260905172928 | 95 | 256 | 2.6 | 2.6 | 0.00 | 0.00 | 0.00 | 56 | 997.4 |
| 20260905172759 | 95 | 253 | 0.9 | 1.7 | 0.00 | 0.00 | 0.00 | 55 | 997.5 |
| 20260905172658 | 95 | 258 | 3.5 | 4.3 | 0.00 | 0.00 | 0.00 | 55 | 997.4 |
| 20260905172529 | 95 | 257 | 0.9 | 1.7 | 0.00 | 0.00 | 0.00 | 56 | 997.7 |
| 20260905172428 | 95 | 257 | 1.7 | 2.6 | 0.00 | 0.00 | 0.00 | 55 | 997.5 |
| 20260905172328 | 96 | 262 | 2.6 | 2.6 | 0.00 | 0.00 | 0.00 | 55 | 997.6 |
| 20260905172228 | 97 | 261 | 1.7 | 3.5 | 0.00 | 0.00 | 0.00 | 55 | 997.5 |
| 20260905172059 | 97 | 250 | 0.0 | 0.9 | 0.00 | 0.00 | 0.00 | 55 | 997.8 |
| 20260905171958 | 97 | 250 | 0.0 | 0.0 | 0.00 | 0.00 | 0.00 | 56 | 997.6 |
| 20260905171858 | 96 | 250 | 0.0 | 0.0 | 0.00 | 0.00 | 0.00 | 54 | 997.6 |
| 20260905171758 | 96 | 250 | 0.0 | 0.0 | 0.00 | 0.00 | 0.00 | 54 | 997.7 |
| 20260905171658 | 96 | 250 | 0.9 | 0.9 | 0.00 | 0.00 | 0.00 | 54 | 997.8 |
| 20260905171529 | 96 | 250 | 0.0 | 0.0 | 0.00 | 0.00 | 0.00 | 55 | 997.7 |
| 20260905171358 | 95 | 250 | 0.0 | 0.0 | 0.00 | 0.00 | 0.00 | 54 | 997.7 |
| 20260905171258 | 95 | 250 | 0.0 | 0.0 | 0.00 | 0.00 | 0.00 | 55 | 997.8 |
| 20260905171132 | 95 | 250 | 1.7 | 1.7 | 0.00 | 0.00 | 0.00 | 55 | 997.8 |
| 20260905171028 | 95 | 250 | 2.6 | 3.5 | 0.00 | 0.00 | 0.00 | 53 | 997.8 |
| 20260905170928 | 95 | 250 | 1.7 | 2.6 | 0.00 | 0.00 | 0.00 | 54 | 997.7 |
| 20260905170828 | 95 | 251 | 1.7 | 3.5 | 0.00 | 0.00 | 0.00 | 55 | 997.9 |
| 20260905170728 | 95 | 250 | 0.9 | 2.6 | 0.00 | 0.00 | 0.00 | 55 | 997.9 |
| 20260905170628 | 95 | 250 | 1.7 | 1.7 | 0.00 | 0.00 | 0.00 | 56 | 997.8 |
| 20260905170458 | 95 | 250 | 0.9 | 1.7 | 0.00 | 0.00 | 0.00 | 55 | 997.7 |
| 20260905170358 | 95 | 250 | 1.7 | 2.6 | 0.00 | 0.00 | 0.00 | 54 | 997.7 |
| 20260905170258 | 95 | 250 | 1.7 | 2.6 | 0.00 | 0.00 | 0.00 | 57 | 997.6 |
| 20260905170158 | 95 | 250 | 2.6 | 3.5 | 0.00 | 0.00 | 0.00 | 55 | 997.7 |
| 20260905170058 | 95 | 252 | 2.6 | 4.3 | 0.00 | 0.00 | 0.00 | 56 | 997.8 |
| 20260905165958 | 95 | 250 | 2.6 | 3.5 | 0.00 | 0.00 | 0.00 | 57 | 997.7 |
| 20260905165828 | 95 | 250 | 0.9 | 0.9 | 0.00 | 0.00 | 0.00 | 62 | 997.7 |
| 20260905165728 | 95 | 250 | 0.9 | 1.7 | 0.00 | 0.00 | 0.00 | 59 | 997.8 |
| 20260905165558 | 95 | 250 | 1.7 | 2.6 | 0.00 | 0.00 | 0.00 | 57 | 997.9 |
| 20260905165458 | 95 | 249 | 2.6 | 5.2 | 0.00 | 0.00 | 0.00 | 58 | 997.8 |
| 20260905165328 | 95 | 246 | 2.6 | 3.5 | 0.00 | 0.00 | 0.00 | 56 | 997.7 |
| 20260905165228 | 95 | 246 | 2.6 | 2.6 | 0.00 | 0.00 | 0.00 | 56 | 997.7 |
| 20260905165128 | 95 | 246 | 1.7 | 2.6 | 0.00 | 0.00 | 0.00 | 62 | 997.8 |
| 20260905165028 | 96 | 246 | 1.7 | 1.7 | 0.00 | 0.00 | 0.00 | 57 | 997.8 |
| 20260905164928 | 95 | 246 | 0.0 | 0.0 | 0.00 | 0.00 | 0.00 | 58 | 998.0 |
| 20260905164828 | 95 | 246 | 0.0 | 0.0 | 0.00 | 0.00 | 0.00 | 58 | 998.1 |
| 20260905164729 | 95 | 246 | 0.0 | 0.0 | 0.00 | 0.00 | 0.00 | 57 | 998.0 |
| 20260905164559 | 95 | 246 | 1.7 | 2.6 | 0.00 | 0.00 | 0.00 | 59 | 997.7 |
| 20260905164429 | 95 | 245 | 0.0 | 0.9 | 0.00 | 0.00 | 0.00 | 60 | 998.0 |
| 20260905164328 | 95 | 245 | 1.7 | 2.6 | 0.00 | 0.00 | 0.00 | 58 | 998.0 |
| 20260905164228 | 95 | 246 | 0.9 | 1.7 | 0.00 | 0.00 | 0.00 | 59 | 998.0 |
| 20260905164128 | 94 | 246 | 0.0 | 0.0 | 0.00 | 0.00 | 0.00 | 61 | 997.9 |
| 20260905164029 | 94 | 246 | 0.0 | 0.0 | 0.00 | 0.00 | 0.00 | 60 | 997.9 |
| 20260905163928 | 94 | 246 | 0.9 | 2.6 | 0.00 | 0.00 | 0.00 | 60 | 998.0 |
| 20260905163828 | 94 | 246 | 0.9 | 1.7 | 0.00 | 0.00 | 0.00 | 60 | 998.0 |
| 20260905163728 | 95 | 246 | 3.5 | 3.5 | 0.00 | 0.00 | 0.00 | 60 | 998.2 |
| 20260905163558 | 95 | 246 | 2.6 | 2.6 | 0.00 | 0.00 | 0.00 | 59 | 998.1 |
| 20260905163458 | 95 | 244 | 0.0 | 0.9 | 0.00 | 0.00 | 0.00 | 60 | 998.1 |
| 20260905163329 | 95 | 244 | 0.0 | 0.0 | 0.00 | 0.00 | 0.00 | 58 | 998.2 |
| 20260905163228 | 95 | 244 | 0.0 | 0.0 | 0.00 | 0.00 | 0.00 | 58 | 998.2 |
| 20260905163058 | 95 | 244 | 0.9 | 1.7 | 0.00 | 0.00 | 0.00 | 59 | 998.2 |
| 20260905162958 | 95 | 245 | 0.9 | 1.7 | 0.00 | 0.00 | 0.00 | 61 | 998.1 |
| 20260905162858 | 95 | 245 | 0.0 | 0.9 | 0.00 | 0.00 | 0.00 | 62 | 998.3 |
| 20260905162729 | 95 | 245 | 1.7 | 2.6 | 0.00 | 0.00 | 0.00 | 59 | 998.2 |
| 20260905162628 | 95 | 245 | 0.0 | 0.9 | 0.00 | 0.00 | 0.00 | 59 | 998.3 |
| 20260905162528 | 95 | 244 | 0.0 | 0.9 | 0.00 | 0.00 | 0.00 | 62 | 998.1 |
| 20260905162428 | 95 | 245 | 0.0 | 0.0 | 0.00 | 0.00 | 0.00 | 62 | 998.2 |
| 20260905162328 | 95 | 245 | 1.7 | 1.7 | 0.00 | 0.00 | 0.00 | 63 | 998.2 |
| 20260905162228 | 95 | 244 | 0.0 | 0.0 | 0.00 | 0.00 | 0.00 | 63 | 998.1 |
| 20260905162128 | 95 | 245 | 0.0 | 0.0 | 0.00 | 0.00 | 0.00 | 66 | 998.2 |
| 20260905162028 | 94 | 245 | 0.0 | 0.0 | 0.00 | 0.00 | 0.00 | 63 | 998.2 |
| 20260905161859 | 94 | 245 | 0.0 | 0.0 | 0.00 | 0.00 | 0.00 | 62 | 998.1 |
| 20260905161758 | 94 | 244 | 0.0 | 0.0 | 0.00 | 0.00 | 0.00 | 63 | 998.3 |
| 20260905161658 | 94 | 244 | 0.9 | 1.7 | 0.00 | 0.00 | 0.00 | 62 | 998.1 |
| 20260905161559 | 94 | 245 | 0.9 | 1.7 | 0.00 | 0.00 | 0.00 | 63 | 998.3 |
| 20260905161429 | 94 | 244 | 0.9 | 1.7 | 0.00 | 0.00 | 0.00 | 64 | 998.3 |
| 20260905161329 | 95 | 244 | 1.7 | 2.6 | 0.00 | 0.00 | 0.00 | 62 | 998.6 |
| 20260905161159 | 95 | 244 | 0.9 | 0.9 | 0.00 | 0.00 | 0.00 | 60 | 998.4 |
| 20260905161058 | 95 | 244 | 0.0 | 0.0 | 0.00 | 0.00 | 0.00 | 62 | 998.2 |
| 20260905160928 | 95 | 245 | 0.0 | 0.0 | 0.00 | 0.00 | 0.00 | 62 | 998.4 |
| 20260905160829 | 94 | 245 | 0.0 | 0.0 | 0.00 | 0.00 | 0.00 | 61 | 998.1 |
| 20260905160659 | 94 | 245 | 0.0 | 0.0 | 0.00 | 0.00 | 0.00 | 64 | 998.2 |
| 20260905160529 | 93 | 246 | 0.0 | 0.0 | 0.00 | 0.00 | 0.00 | 68 | 998.5 |
| 20260905160428 | 93 | 245 | 0.0 | 0.9 | 0.00 | 0.00 | 0.00 | 63 | 998.4 |
| 20260905160328 | 93 | 246 | 0.9 | 1.7 | 0.00 | 0.00 | 0.00 | 62 | 998.2 |
| 20260905160228 | 93 | 246 | 0.9 | 1.7 | 0.00 | 0.00 | 0.00 | 64 | 998.4 |
| 20260905160059 | 93 | 246 | 0.0 | 0.9 | 0.00 | 0.00 | 0.00 | 66 | 998.2 |
| 20260905155958 | 92 | 246 | 2.6 | 2.6 | 0.00 | 0.00 | 0.00 | 66 | 998.4 |
| 20260905155858 | 92 | 246 | 0.9 | 1.7 | 0.00 | 0.00 | 0.00 | 64 | 998.3 |
| 20260905155758 | 92 | 246 | 1.7 | 1.7 | 0.00 | 0.00 | 0.00 | 64 | 998.4 |
| 20260905155631 | 93 | 246 | 1.7 | 2.6 | 0.00 | 0.00 | 0.00 | 64 | 998.3 |
| 20260905155529 | 93 | 246 | 2.6 | 3.5 | 0.00 | 0.00 | 0.00 | 64 | 998.3 |
| 20260905155359 | 94 | 245 | 3.5 | 3.5 | 0.00 | 0.00 | 0.00 | 61 | 998.2 |
| 20260905155258 | 94 | 245 | 0.0 | 0.0 | 0.00 | 0.00 | 0.00 | 62 | 998.4 |
| 20260905155130 | 94 | 245 | 1.7 | 2.6 | 0.00 | 0.00 | 0.00 | 61 | 998.2 |
| 20260905155028 | 94 | 245 | 0.0 | 0.9 | 0.00 | 0.00 | 0.00 | 61 | 998.4 |
| 20260905154928 | 94 | 245 | 2.6 | 2.6 | 0.00 | 0.00 | 0.00 | 62 | 998.4 |
| 20260905154800 | 94 | 244 | 0.0 | 0.0 | 0.00 | 0.00 | 0.00 | 65 | 998.3 |
| 20260905154629 | 93 | 244 | 0.0 | 0.0 | 0.00 | 0.00 | 0.00 | 63 | 998.2 |
| 20260905154528 | 93 | 244 | 0.0 | 0.9 | 0.00 | 0.00 | 0.00 | 64 | 998.5 |
| 20260905154359 | 94 | 245 | 0.9 | 1.7 | 0.00 | 0.00 | 0.00 | 64 | 998.6 |
| 20260905154259 | 94 | 244 | 1.7 | 2.6 | 0.00 | 0.00 | 0.00 | 64 | 998.4 |
| 20260905154131 | 94 | 244 | 0.0 | 0.0 | 0.00 | 0.00 | 0.00 | 65 | 998.4 |
| 20260905154029 | 94 | 244 | 0.0 | 0.0 | 0.00 | 0.00 | 0.00 | 64 | 998.4 |
| 20260905153928 | 94 | 244 | 0.0 | 0.9 | 0.00 | 0.00 | 0.00 | 65 | 998.4 |
| 20260905153828 | 94 | 244 | 0.9 | 1.7 | 0.00 | 0.00 | 0.00 | 62 | 998.4 |
| 20260905153728 | 94 | 245 | 0.0 | 0.0 | 0.00 | 0.00 | 0.00 | 64 | 998.6 |
| 20260905153628 | 94 | 244 | 0.0 | 0.9 | 0.00 | 0.00 | 0.00 | 63 | 998.4 |
| 20260905153459 | 94 | 244 | 0.0 | 0.9 | 0.00 | 0.00 | 0.00 | 63 | 998.4 |
| 20260905153358 | 94 | 244 | 0.9 | 1.7 | 0.00 | 0.00 | 0.00 | 63 | 998.5 |
| 20260905153258 | 94 | 245 | 0.0 | 0.9 | 0.00 | 0.00 | 0.00 | 65 | 998.5 |
| 20260905153158 | 94 | 245 | 0.0 | 0.0 | 0.00 | 0.00 | 0.00 | 64 | 998.4 |
| 20260905153035 | 93 | 245 | 0.0 | 0.0 | 0.00 | 0.00 | 0.00 | 63 | 998.3 |
| 20260905152928 | 93 | 244 | 0.0 | 0.0 | 0.00 | 0.00 | 0.00 | 63 | 998.7 |
| 20260905152828 | 93 | 245 | 0.9 | 1.7 | 0.00 | 0.00 | 0.00 | 63 | 998.5 |
| 20260905152658 | 92 | 245 | 0.0 | 0.0 | 0.00 | 0.00 | 0.00 | 65 | 998.6 |
| 20260905152529 | 92 | 245 | 0.0 | 0.0 | 0.00 | 0.00 | 0.00 | 68 | 998.3 |
| 20260905152428 | 92 | 245 | 0.0 | 0.0 | 0.00 | 0.00 | 0.00 | 66 | 998.5 |
| 20260905152328 | 92 | 244 | 0.9 | 1.7 | 0.00 | 0.00 | 0.00 | 65 | 998.5 |
| 20260905152228 | 92 | 244 | 0.9 | 1.7 | 0.00 | 0.00 | 0.00 | 65 | 998.6 |
| 20260905152128 | 92 | 244 | 0.9 | 1.7 | 0.00 | 0.00 | 0.00 | 64 | 998.4 |
| 20260905151959 | 92 | 245 | 0.0 | 0.9 | 0.00 | 0.00 | 0.00 | 65 | 998.5 |
| 20260905151858 | 91 | 245 | 0.0 | 0.9 | 0.00 | 0.00 | 0.00 | 65 | 998.5 |
| 20260905151759 | 91 | 245 | 0.0 | 0.0 | 0.00 | 0.00 | 0.00 | 66 | 998.5 |
| 20260905151630 | 91 | 245 | 0.0 | 0.0 | 0.00 | 0.00 | 0.00 | 64 | 998.6 |
| 20260905151528 | 91 | 245 | 0.9 | 1.7 | 0.00 | 0.00 | 0.00 | 65 | 998.4 |
| 20260905151428 | 91 | 245 | 0.9 | 1.7 | 0.00 | 0.00 | 0.00 | 65 | 998.5 |
| 20260905151328 | 91 | 245 | 0.9 | 0.9 | 0.00 | 0.00 | 0.00 | 65 | 998.5 |
| 20260905151200 | 91 | 245 | 0.0 | 0.9 | 0.00 | 0.00 | 0.00 | 65 | 998.3 |
| 20260905151058 | 91 | 245 | 0.0 | 0.9 | 0.00 | 0.00 | 0.00 | 68 | 998.3 |
| 20260905150958 | 91 | 245 | 0.0 | 0.0 | 0.00 | 0.00 | 0.00 | 71 | 998.7 |
| 20260905150858 | 91 | 245 | 0.0 | 0.0 | 0.00 | 0.00 | 0.00 | 72 | 998.4 |
| 20260905150730 | 91 | 245 | 0.0 | 0.0 | 0.00 | 0.00 | 0.00 | 71 | 998.3 |
| 20260905150628 | 91 | 245 | 0.0 | 0.0 | 0.00 | 0.00 | 0.00 | 70 | 998.4 |
| 20260905150528 | 90 | 245 | 0.0 | 0.0 | 0.00 | 0.00 | 0.00 | 70 | 998.4 |
| 20260905150428 | 90 | 245 | 0.0 | 0.0 | 0.00 | 0.00 | 0.00 | 70 | 998.4 |
| 20260905150329 | 90 | 245 | 0.0 | 0.9 | 0.00 | 0.00 | 0.00 | 71 | 998.5 |
| 20260905150228 | 90 | 245 | 0.0 | 0.9 | 0.00 | 0.00 | 0.00 | 71 | 998.4 |
| 20260905150128 | 90 | 245 | 0.0 | 0.0 | 0.00 | 0.00 | 0.00 | 71 | 998.4 |
| 20260905150028 | 89 | 245 | 0.0 | 0.0 | 0.00 | 0.00 | 0.00 | 71 | 998.5 |
| 20260905145858 | 89 | 245 | 0.0 | 0.0 | 0.00 | 0.00 | 0.00 | 73 | 998.5 |
| 20260905145758 | 89 | 245 | 1.7 | 1.7 | 0.00 | 0.00 | 0.00 | 72 | 998.4 |
| 20260905145629 | 89 | 245 | 0.9 | 1.7 | 0.00 | 0.00 | 0.00 | 72 | 998.5 |
| 20260905145528 | 89 | 245 | 0.0 | 0.0 | 0.00 | 0.00 | 0.00 | 72 | 998.7 |
| 20260905145428 | 89 | 245 | 0.0 | 1.7 | 0.00 | 0.00 | 0.00 | 73 | 998.5 |
| 20260905145328 | 89 | 245 | 0.9 | 0.9 | 0.00 | 0.00 | 0.00 | 71 | 998.6 |
| 20260905145228 | 89 | 245 | 0.0 | 0.0 | 0.00 | 0.00 | 0.00 | 72 | 998.4 |
| 20260905145059 | 89 | 245 | 0.0 | 0.0 | 0.00 | 0.00 | 0.00 | 73 | 998.4 |
| 20260905144958 | 89 | 245 | 0.9 | 0.9 | 0.00 | 0.00 | 0.00 | 72 | 998.4 |
| 20260905144829 | 89 | 245 | 1.7 | 1.7 | 0.00 | 0.00 | 0.00 | 72 | 998.5 |
| 20260905144728 | 89 | 245 | 0.0 | 0.9 | 0.00 | 0.00 | 0.00 | 74 | 998.8 |
| 20260905144600 | 89 | 245 | 1.7 | 2.6 | 0.00 | 0.00 | 0.00 | 72 | 998.5 |
| 20260905144459 | 89 | 245 | 0.9 | 1.7 | 0.00 | 0.00 | 0.00 | 72 | 998.6 |
| 20260905144358 | 89 | 245 | 1.7 | 2.6 | 0.00 | 0.00 | 0.00 | 71 | 998.6 |
| 20260905144259 | 89 | 245 | 0.9 | 1.7 | 0.00 | 0.00 | 0.00 | 71 | 998.5 |
| 20260905144158 | 89 | 245 | 0.0 | 0.9 | 0.00 | 0.00 | 0.00 | 73 | 998.6 |
| 20260905144030 | 89 | 245 | 0.9 | 1.7 | 0.00 | 0.00 | 0.00 | 71 | 998.4 |
| 20260905143928 | 89 | 245 | 0.0 | 0.9 | 0.00 | 0.00 | 0.00 | 73 | 998.4 |
| 20260905143828 | 89 | 245 | 0.9 | 1.7 | 0.00 | 0.00 | 0.00 | 71 | 998.4 |
| 20260905143728 | 90 | 245 | 1.7 | 1.7 | 0.00 | 0.00 | 0.00 | 70 | 998.4 |
| 20260905143628 | 90 | 244 | 1.7 | 2.6 | 0.00 | 0.00 | 0.00 | 70 | 998.5 |
| 20260905143528 | 90 | 244 | 0.9 | 1.7 | 0.00 | 0.00 | 0.00 | 70 | 998.5 |
| 20260905143359 | 90 | 244 | 0.0 | 0.9 | 0.00 | 0.00 | 0.00 | 69 | 998.5 |
| 20260905143258 | 90 | 244 | 0.0 | 0.9 | 0.00 | 0.00 | 0.00 | 69 | 998.4 |
| 20260905143158 | 89 | 245 | 0.0 | 0.0 | 0.00 | 0.00 | 0.00 | 69 | 998.4 |
| 20260905143028 | 89 | 245 | 0.0 | 0.0 | 0.00 | 0.00 | 0.00 | 70 | 998.6 |
| 20260905142928 | 89 | 244 | 0.0 | 0.9 | 0.00 | 0.00 | 0.00 | 71 | 998.3 |
| 20260905142828 | 89 | 244 | 0.0 | 0.0 | 0.00 | 0.00 | 0.00 | 72 | 998.6 |
| 20260905142659 | 88 | 245 | 1.7 | 1.7 | 0.00 | 0.00 | 0.00 | 71 | 998.5 |
| 20260905142558 | 88 | 245 | 0.0 | 0.9 | 0.00 | 0.00 | 0.00 | 71 | 998.3 |
| 20260905142458 | 88 | 245 | 2.6 | 3.5 | 0.00 | 0.00 | 0.00 | 71 | 998.3 |
| 20260905142359 | 88 | 245 | 0.0 | 0.9 | 0.00 | 0.00 | 0.00 | 71 | 998.4 |
| 20260905142258 | 88 | 244 | 1.7 | 2.6 | 0.00 | 0.00 | 0.00 | 71 | 998.3 |
| 20260905142158 | 88 | 245 | 0.9 | 1.7 | 0.00 | 0.00 | 0.00 | 71 | 998.4 |
| 20260905142028 | 88 | 245 | 1.7 | 1.7 | 0.00 | 0.00 | 0.00 | 71 | 998.5 |
| 20260905141929 | 88 | 245 | 0.9 | 0.9 | 0.00 | 0.00 | 0.00 | 71 | 998.4 |
| 20260905141800 | 89 | 245 | 1.7 | 2.6 | 0.00 | 0.00 | 0.00 | 70 | 998.5 |
| 20260905141628 | 89 | 245 | 0.0 | 0.9 | 0.00 | 0.00 | 0.00 | 70 | 998.4 |
| 20260905141528 | 89 | 245 | 0.0 | 0.9 | 0.00 | 0.00 | 0.00 | 70 | 998.2 |
| 20260905141359 | 89 | 244 | 0.0 | 0.9 | 0.00 | 0.00 | 0.00 | 69 | 998.5 |
| 20260905141229 | 89 | 244 | 0.9 | 1.7 | 0.00 | 0.00 | 0.00 | 70 | 998.4 |
| 20260905141059 | 90 | 244 | 0.9 | 0.9 | 0.00 | 0.00 | 0.00 | 70 | 998.2 |
| 20260905140929 | 89 | 244 | 0.0 | 0.0 | 0.00 | 0.00 | 0.00 | 71 | 998.5 |
| 20260905140829 | 89 | 244 | 0.0 | 0.0 | 0.00 | 0.00 | 0.00 | 72 | 998.3 |
| 20260905140659 | 88 | 244 | 0.0 | 0.0 | 0.00 | 0.00 | 0.00 | 71 | 998.2 |
| 20260905140559 | 88 | 245 | 0.0 | 0.0 | 0.00 | 0.00 | 0.00 | 71 | 998.4 |
| 20260905140429 | 89 | 245 | 0.0 | 0.0 | 0.00 | 0.00 | 0.00 | 74 | 998.3 |
| 20260905140328 | 89 | 245 | 0.0 | 0.0 | 0.00 | 0.00 | 0.00 | 75 | 998.3 |
| 20260905140228 | 89 | 245 | 0.0 | 0.0 | 0.00 | 0.00 | 0.00 | 74 | 998.1 |
| 20260905140128 | 88 | 245 | 0.0 | 0.0 | 0.00 | 0.00 | 0.00 | 74 | 998.2 |
| 20260905140028 | 88 | 244 | 0.0 | 0.0 | 0.00 | 0.00 | 0.00 | 74 | 998.1 |
| 20260905135928 | 88 | 245 | 0.0 | 0.0 | 0.00 | 0.00 | 0.00 | 74 | 998.4 |
| 20260905135828 | 88 | 245 | 0.0 | 0.0 | 0.00 | 0.00 | 0.00 | 74 | 998.3 |
| 20260905135728 | 88 | 245 | 0.0 | 0.0 | 0.00 | 0.00 | 0.00 | 74 | 998.2 |
| 20260905135558 | 88 | 245 | 0.0 | 0.0 | 0.00 | 0.00 | 0.00 | 74 | 998.3 |
| 20260905135458 | 88 | 245 | 0.0 | 0.0 | 0.00 | 0.00 | 0.00 | 74 | 998.3 |
| 20260905135328 | 88 | 245 | 0.0 | 0.0 | 0.00 | 0.00 | 0.00 | 74 | 998.4 |
| 20260905135228 | 88 | 245 | 0.0 | 0.0 | 0.00 | 0.00 | 0.00 | 75 | 998.1 |
| 20260905135059 | 88 | 245 | 0.0 | 0.0 | 0.00 | 0.00 | 0.00 | 74 | 998.2 |
| 20260905134929 | 88 | 245 | 0.0 | 0.0 | 0.00 | 0.00 | 0.00 | 75 | 998.2 |
| 20260905134759 | 88 | 245 | 0.0 | 0.0 | 0.00 | 0.00 | 0.00 | 76 | 998.3 |
| 20260905134658 | 88 | 245 | 0.0 | 0.0 | 0.00 | 0.00 | 0.00 | 76 | 998.2 |
| 20260905134558 | 88 | 245 | 0.0 | 0.0 | 0.00 | 0.00 | 0.00 | 76 | 998.3 |
| 20260905134429 | 87 | 245 | 0.0 | 0.0 | 0.00 | 0.00 | 0.00 | 79 | 998.2 |
| 20260905134328 | 87 | 245 | 0.0 | 0.0 | 0.00 | 0.00 | 0.00 | 79 | 998.4 |
| 20260905134228 | 87 | 245 | 0.0 | 0.0 | 0.00 | 0.00 | 0.00 | 79 | 998.4 |
| 20260905134128 | 87 | 245 | 0.0 | 0.0 | 0.00 | 0.00 | 0.00 | 78 | 998.3 |
| 20260905133958 | 87 | 245 | 0.0 | 0.0 | 0.00 | 0.00 | 0.00 | 79 | 998.2 |
| 20260905133859 | 86 | 245 | 0.0 | 0.0 | 0.00 | 0.00 | 0.00 | 82 | 998.2 |
| 20260905133730 | 86 | 245 | 0.0 | 0.0 | 0.00 | 0.00 | 0.00 | 83 | 998.2 |
| 20260905133629 | 86 | 245 | 0.0 | 0.0 | 0.00 | 0.00 | 0.00 | 84 | 998.3 |
| 20260905133500 | 84 | 245 | 0.0 | 0.0 | 0.00 | 0.00 | 0.00 | 85 | 998.3 |
| 20260905133330 | 84 | 245 | 0.0 | 0.0 | 0.00 | 0.00 | 0.00 | 85 | 998.1 |
| 20260905133159 | 84 | 245 | 0.0 | 0.0 | 0.00 | 0.00 | 0.00 | 85 | 998.2 |
| 20260905133028 | 83 | 245 | 0.0 | 0.0 | 0.00 | 0.00 | 0.00 | 86 | 998.1 |
| 20260905132900 | 83 | 245 | 0.0 | 0.0 | 0.00 | 0.00 | 0.00 | 86 | 998.3 |
| 20260905132759 | 83 | 245 | 0.0 | 0.0 | 0.00 | 0.00 | 0.00 | 87 | 998.1 |
| 20260905132629 | 83 | 245 | 0.0 | 0.0 | 0.00 | 0.00 | 0.00 | 87 | 998.3 |
| 20260905132459 | 83 | 245 | 0.0 | 0.0 | 0.00 | 0.00 | 0.00 | 87 | 998.3 |
| 20260905132328 | 83 | 245 | 0.0 | 0.0 | 0.00 | 0.00 | 0.00 | 87 | 998.2 |
| 20260905132228 | 83 | 245 | 0.0 | 0.0 | 0.00 | 0.00 | 0.00 | 88 | 998.2 |
| 20260905132059 | 83 | 245 | 0.0 | 0.0 | 0.00 | 0.00 | 0.00 | 88 | 998.2 |
| 20260905131959 | 83 | 245 | 0.0 | 0.0 | 0.00 | 0.00 | 0.00 | 87 | 998.5 |
| 20260905131829 | 83 | 245 | 0.0 | 0.0 | 0.00 | 0.00 | 0.00 | 88 | 998.3 |
| 20260905131658 | 83 | 245 | 0.0 | 0.0 | 0.00 | 0.00 | 0.00 | 87 | 998.2 |
| 20260905131530 | 83 | 245 | 0.0 | 0.0 | 0.00 | 0.00 | 0.00 | 88 | 998.3 |
| 20260905131359 | 83 | 245 | 0.0 | 0.0 | 0.00 | 0.00 | 0.00 | 89 | 998.2 |
| 20260905131258 | 83 | 245 | 0.0 | 0.0 | 0.00 | 0.00 | 0.00 | 88 | 998.1 |
| 20260905131129 | 83 | 245 | 0.0 | 0.0 | 0.00 | 0.00 | 0.00 | 88 | 998.2 |
| 20260905130959 | 83 | 245 | 0.0 | 0.0 | 0.00 | 0.00 | 0.00 | 88 | 998.1 |
| 20260905130829 | 83 | 245 | 0.0 | 0.0 | 0.00 | 0.00 | 0.00 | 87 | 998.2 |
| 20260905130728 | 83 | 245 | 0.0 | 0.0 | 0.00 | 0.00 | 0.00 | 87 | 998.2 |
| 20260905130629 | 83 | 245 | 0.0 | 0.0 | 0.00 | 0.00 | 0.00 | 87 | 998.1 |
| 20260905130459 | 83 | 245 | 0.0 | 0.0 | 0.00 | 0.00 | 0.00 | 87 | 998.2 |
| 20260905130359 | 83 | 245 | 0.0 | 0.0 | 0.00 | 0.00 | 0.00 | 88 | 998.0 |
| 20260905130229 | 83 | 245 | 0.0 | 0.0 | 0.00 | 0.00 | 0.00 | 88 | 998.2 |
| 20260905130128 | 82 | 245 | 0.0 | 0.0 | 0.00 | 0.00 | 0.00 | 88 | 998.2 |
| 20260905130028 | 82 | 245 | 0.0 | 0.0 | 0.00 | 0.00 | 0.00 | 88 | 998.2 |
| 20260905125928 | 80 | 245 | 0.0 | 0.0 | 0.00 | 0.00 | 0.00 | 91 | 998.2 |
| 20260905125800 | 80 | 245 | 0.0 | 0.0 | 0.00 | 0.00 | 0.00 | 91 | 998.1 |
| 20260905125658 | 80 | 245 | 0.0 | 0.0 | 0.00 | 0.00 | 0.00 | 91 | 998.2 |
| 20260905125529 | 80 | 245 | 0.0 | 0.0 | 0.00 | 0.00 | 0.00 | 91 | 998.0 |
| 20260905125428 | 80 | 245 | 0.0 | 0.0 | 0.00 | 0.00 | 0.00 | 91 | 998.0 |
| 20260905125259 | 80 | 245 | 0.0 | 0.0 | 0.00 | 0.00 | 0.00 | 91 | 998.2 |
| 20260905125158 | 80 | 245 | 0.0 | 0.0 | 0.00 | 0.00 | 0.00 | 91 | 997.8 |
| 20260905125059 | 80 | 245 | 0.0 | 0.0 | 0.00 | 0.00 | 0.00 | 91 | 998.1 |
| 20260905124929 | 80 | 245 | 0.0 | 0.0 | 0.00 | 0.00 | 0.00 | 91 | 998.1 |
| 20260905124829 | 80 | 245 | 0.0 | 0.0 | 0.00 | 0.00 | 0.00 | 91 | 998.0 |
| 20260905124728 | 79 | 245 | 0.0 | 0.0 | 0.00 | 0.00 | 0.00 | 92 | 998.0 |
| 20260905124628 | 79 | 245 | 0.0 | 0.0 | 0.00 | 0.00 | 0.00 | 93 | 998.1 |
| 20260905124528 | 79 | 245 | 0.0 | 0.0 | 0.00 | 0.00 | 0.00 | 93 | 998.0 |
| 20260905124359 | 79 | 245 | 0.0 | 0.0 | 0.00 | 0.00 | 0.00 | 95 | 997.9 |
| 20260905124229 | 78 | 245 | 0.0 | 0.0 | 0.00 | 0.00 | 0.00 | 96 | 998.0 |
| 20260905124128 | 78 | 245 | 0.0 | 0.0 | 0.00 | 0.00 | 0.00 | 96 | 998.0 |
| 20260905123958 | 78 | 245 | 0.0 | 0.0 | 0.00 | 0.00 | 0.00 | 97 | 998.1 |
| 20260905123858 | 78 | 245 | 0.0 | 0.0 | 0.00 | 0.00 | 0.00 | 98 | 997.9 |
| 20260905123728 | 78 | 245 | 0.0 | 0.0 | 0.00 | 0.00 | 0.00 | 98 | 997.9 |
| 20260905123559 | 78 | 245 | 0.0 | 0.0 | 0.00 | 0.00 | 0.00 | 98 | 997.9 |
| 20260905123428 | 77 | 245 | 0.0 | 0.0 | 0.00 | 0.00 | 0.00 | 99 | 998.0 |
| 20260905123259 | 77 | 245 | 0.0 | 0.0 | 0.00 | 0.00 | 0.00 | 99 | 997.8 |
| 20260905123158 | 76 | 245 | 0.0 | 0.0 | 0.00 | 0.00 | 0.00 | 99 | 997.7 |
| 20260905123058 | 76 | 245 | 0.0 | 0.0 | 0.00 | 0.00 | 0.00 | 99 | 997.9 |
| 20260905122928 | 76 | 245 | 0.0 | 0.0 | 0.00 | 0.00 | 0.00 | 99 | 998.0 |
| 20260905122759 | 76 | 245 | 0.0 | 0.0 | 0.00 | 0.00 | 0.00 | 99 | 997.9 |
| 20260905122659 | 76 | 245 | 0.0 | 0.0 | 0.00 | 0.00 | 0.00 | 99 | 997.7 |
| 20260905122528 | 76 | 245 | 0.0 | 0.0 | 0.00 | 0.00 | 0.00 | 99 | 997.9 |